Wetterdaten: Montag, 07.12.2020
Datum Zeit Temp. Aussen Temp. o. S. Temp +5cm Feuchte Auss Luftdruck Regen Sonnenschein Regendauer Solar Windben Empfang
07.12.2020 00:00 3,8 C 2,8 C 3,4 C 99 % 998,1 hPa 0,0 l/m 0 min 0 min 0 W/m 0,0 km/h (0 Bft) 95,74 %
07.12.2020 00:02 3,8 C 2,8 C 3,4 C 99 % 998,1 hPa 0,0 l/m 0 min 2 min 0 W/m 3,2 km/h (1 Bft) 95,24 %
07.12.2020 00:04 3,7 C 2,8 C 3,4 C 99 % 998,0 hPa 0,0 l/m 0 min 0 min 0 W/m 6,4 km/h (2 Bft) 95,74 %
07.12.2020 00:08 3,7 C 2,8 C 3,4 C 99 % 998,0 hPa 0,0 l/m 0 min 0 min 0 W/m 0,0 km/h (0 Bft) 95,70 %
07.12.2020 00:10 3,7 C 2,8 C 3,4 C 99 % 997,9 hPa 0,0 l/m 0 min 0 min 0 W/m 6,4 km/h (2 Bft) 93,62 %
07.12.2020 00:12 3,7 C 3,3 C 3,4 C 99 % 997,8 hPa 0,0 l/m 0 min 0 min 0 W/m 3,2 km/h (1 Bft) 95,74 %
07.12.2020 00:14 3,7 C 2,8 C 3,4 C 99 % 997,7 hPa 0,0 l/m 0 min 0 min 0 W/m 16,1 km/h (3 Bft) 95,74 %
07.12.2020 00:16 3,7 C 2,8 C 3,4 C 99 % 997,7 hPa 0,0 l/m 0 min 0 min 0 W/m 9,7 km/h (2 Bft) 95,74 %
07.12.2020 00:18 3,7 C 2,8 C 3,4 C 99 % 997,6 hPa 0,0 l/m 0 min 2 min 0 W/m 6,4 km/h (2 Bft) 95,65 %
07.12.2020 00:20 3,7 C 2,8 C 3,4 C 99 % 997,7 hPa 0,0 l/m 0 min 2 min 0 W/m 0,0 km/h (0 Bft) 95,74 %
07.12.2020 00:22 3,7 C 2,8 C 3,4 C 99 % 997,8 hPa 0,0 l/m 0 min 2 min 0 W/m 3,2 km/h (1 Bft) 95,74 %
07.12.2020 00:24 3,7 C 3,3 C 3,4 C 99 % 997,9 hPa 0,0 l/m 0 min 2 min 0 W/m 0,0 km/h (0 Bft) 95,74 %
07.12.2020 00:26 3,7 C 2,8 C 3,4 C 99 % 997,9 hPa 0,0 l/m 0 min 0 min 0 W/m 0,0 km/h (0 Bft) 95,74 %
07.12.2020 00:28 3,7 C 3,3 C 3,4 C 99 % 997,9 hPa 0,0 l/m 0 min 2 min 0 W/m 6,4 km/h (2 Bft) 95,74 %
07.12.2020 00:30 3,7 C 2,8 C 3,4 C 99 % 997,9 hPa 0,0 l/m 0 min 2 min 0 W/m 9,7 km/h (2 Bft) 95,65 %
07.12.2020 00:32 3,7 C 2,8 C 3,4 C 99 % 997,8 hPa 0,0 l/m 0 min 2 min 0 W/m 6,4 km/h (2 Bft) 48,84 %
07.12.2020 00:34 3,7 C 2,8 C 3,4 C 99 % 997,8 hPa 0,0 l/m 0 min 2 min 0 W/m 3,2 km/h (1 Bft) 95,74 %
07.12.2020 00:36 3,7 C 2,8 C 3,4 C 99 % 997,8 hPa 0,2 l/m 0 min 2 min 0 W/m 6,4 km/h (2 Bft) 95,74 %
07.12.2020 00:38 3,7 C 2,8 C 3,4 C 99 % 997,9 hPa 0,0 l/m 0 min 2 min 0 W/m 0,0 km/h (0 Bft) 97,87 %
07.12.2020 00:40 3,7 C 2,8 C 3,4 C 99 % 997,9 hPa 0,0 l/m 0 min 2 min 0 W/m 12,9 km/h (3 Bft) 97,83 %
07.12.2020 00:42 3,7 C 2,8 C 2,8 C 99 % 997,9 hPa 0,0 l/m 0 min 2 min 0 W/m 6,4 km/h (2 Bft) 97,87 %
07.12.2020 00:44 3,6 C 2,8 C 2,8 C 99 % 997,9 hPa 0,0 l/m 0 min 2 min 0 W/m 3,2 km/h (1 Bft) 97,87 %
07.12.2020 00:46 3,6 C 2,8 C 2,8 C 99 % 997,9 hPa 0,0 l/m 0 min 2 min 0 W/m 6,4 km/h (2 Bft) 93,62 %
07.12.2020 00:48 3,6 C 2,8 C 2,8 C 99 % 997,8 hPa 0,0 l/m 0 min 2 min 0 W/m 6,4 km/h (2 Bft) 97,87 %
07.12.2020 00:50 3,6 C 2,8 C 2,8 C 99 % 997,8 hPa 0,0 l/m 0 min 2 min 0 W/m 3,2 km/h (1 Bft) 97,87 %
07.12.2020 00:52 3,6 C 2,8 C 2,8 C 99 % 997,7 hPa 0,0 l/m 0 min 2 min 0 W/m 6,4 km/h (2 Bft) 97,83 %
07.12.2020 00:54 3,6 C 2,8 C 2,8 C 99 % 997,7 hPa 0,0 l/m 0 min 2 min 0 W/m 3,2 km/h (1 Bft) 97,87 %
07.12.2020 00:56 3,6 C 2,8 C 2,8 C 99 % 997,6 hPa 0,0 l/m 0 min 2 min 0 W/m 6,4 km/h (2 Bft) 97,87 %
07.12.2020 00:58 3,6 C 2,8 C 2,8 C 99 % 997,6 hPa 0,0 l/m 0 min 2 min 0 W/m 6,4 km/h (2 Bft) 97,87 %
07.12.2020 01:00 3,5 C 2,8 C 2,8 C 99 % 997,5 hPa 0,2 l/m 0 min 2 min 0 W/m 6,4 km/h (2 Bft) 97,87 %
07.12.2020 01:02 3,5 C 2,8 C 2,8 C 99 % 997,6 hPa 0,0 l/m 0 min 2 min 0 W/m 6,4 km/h (2 Bft) 95,74 %
07.12.2020 01:04 3,5 C 2,8 C 2,8 C 99 % 997,6 hPa 0,0 l/m 0 min 2 min 0 W/m 6,4 km/h (2 Bft) 97,83 %
07.12.2020 01:06 3,5 C 2,8 C 2,8 C 99 % 997,7 hPa 0,0 l/m 0 min 2 min 0 W/m 0,0 km/h (0 Bft) 97,87 %
07.12.2020 01:08 3,5 C 2,8 C 2,8 C 99 % 997,8 hPa 0,0 l/m 0 min 2 min 0 W/m 0,0 km/h (0 Bft) 97,87 %
07.12.2020 01:10 3,5 C 2,8 C 2,8 C 99 % 997,8 hPa 0,0 l/m 0 min 2 min 0 W/m 3,2 km/h (1 Bft) 97,87 %
07.12.2020 01:12 3,5 C 2,8 C 2,8 C 99 % 997,7 hPa 0,0 l/m 0 min 2 min 0 W/m 9,7 km/h (2 Bft) 97,87 %
07.12.2020 01:14 3,5 C 2,8 C 2,8 C 99 % 997,7 hPa 0,0 l/m 0 min 2 min 0 W/m 6,4 km/h (2 Bft) 97,83 %
07.12.2020 01:16 3,5 C 2,8 C 2,8 C 99 % 997,6 hPa 0,2 l/m 0 min 2 min 0 W/m 6,4 km/h (2 Bft) 95,74 %
07.12.2020 01:18 3,4 C 2,8 C 2,8 C 99 % 997,6 hPa 0,2 l/m 0 min 2 min 0 W/m 3,2 km/h (1 Bft) 97,87 %
07.12.2020 01:20 3,4 C 2,8 C 2,8 C 99 % 997,6 hPa 0,0 l/m 0 min 2 min 0 W/m 16,1 km/h (3 Bft) 97,87 %
07.12.2020 01:22 3,4 C 2,8 C 2,8 C 99 % 997,6 hPa 0,0 l/m 0 min 2 min 0 W/m 3,2 km/h (1 Bft) 95,74 %
07.12.2020 01:24 3,4 C 2,8 C 2,8 C 99 % 997,4 hPa 0,0 l/m 0 min 2 min 0 W/m 16,1 km/h (3 Bft) 95,74 %
07.12.2020 01:26 3,4 C 2,8 C 2,8 C 99 % 997,4 hPa 0,2 l/m 0 min 2 min 0 W/m 9,7 km/h (2 Bft) 93,62 %
07.12.2020 01:28 3,4 C 2,8 C 2,8 C 99 % 997,4 hPa 0,0 l/m 0 min 2 min 0 W/m 9,7 km/h (2 Bft) 95,65 %
07.12.2020 01:30 3,4 C 2,8 C 2,8 C 99 % 997,4 hPa 0,0 l/m 0 min 2 min 0 W/m 12,9 km/h (3 Bft) 95,74 %
07.12.2020 01:32 3,4 C 2,8 C 2,8 C 99 % 997,4 hPa 0,2 l/m 0 min 2 min 0 W/m 6,4 km/h (2 Bft) 95,74 %
07.12.2020 01:34 3,4 C 2,8 C 2,8 C 99 % 997,5 hPa 0,0 l/m 0 min 2 min 0 W/m 12,9 km/h (3 Bft) 93,62 %
07.12.2020 01:36 3,4 C 2,8 C 2,8 C 99 % 997,5 hPa 0,0 l/m 0 min 2 min 0 W/m 16,1 km/h (3 Bft) 93,62 %
07.12.2020 01:38 3,4 C 2,8 C 2,8 C 99 % 997,5 hPa 0,0 l/m 0 min 2 min 0 W/m 9,7 km/h (2 Bft) 95,65 %
07.12.2020 01:40 3,3 C 2,8 C 2,8 C 99 % 997,6 hPa 0,0 l/m 0 min 2 min 0 W/m 9,7 km/h (2 Bft) 93,62 %
07.12.2020 01:42 3,3 C 2,8 C 2,8 C 99 % 997,6 hPa 0,2 l/m 0 min 2 min 0 W/m 6,4 km/h (2 Bft) 95,74 %
07.12.2020 01:44 3,3 C 2,8 C 2,8 C 99 % 997,7 hPa 0,0 l/m 0 min 2 min 0 W/m 6,4 km/h (2 Bft) 93,62 %
07.12.2020 01:46 3,3 C 2,8 C 2,8 C 99 % 997,7 hPa 0,0 l/m 0 min 2 min 0 W/m 3,2 km/h (1 Bft) 93,62 %
07.12.2020 01:48 3,3 C 2,8 C 2,8 C 99 % 997,7 hPa 0,0 l/m 0 min 2 min 0 W/m 6,4 km/h (2 Bft) 95,74 %
07.12.2020 01:50 3,3 C 2,8 C 2,8 C 99 % 997,6 hPa 0,0 l/m 0 min 2 min 0 W/m 6,4 km/h (2 Bft) 95,65 %
07.12.2020 01:52 3,3 C 2,8 C 2,8 C 99 % 997,7 hPa 0,2 l/m 0 min 2 min 0 W/m 0,0 km/h (0 Bft) 93,62 %
07.12.2020 01:54 3,3 C 2,8 C 2,8 C 99 % 997,7 hPa 0,0 l/m 0 min 2 min 0 W/m 16,1 km/h (3 Bft) 95,74 %
07.12.2020 01:56 3,3 C 2,8 C 2,8 C 99 % 997,7 hPa 0,0 l/m 0 min 2 min 0 W/m 9,7 km/h (2 Bft) 93,62 %
07.12.2020 01:58 3,3 C 2,8 C 2,8 C 99 % 997,6 hPa 0,0 l/m 0 min 2 min 0 W/m 9,7 km/h (2 Bft) 95,74 %
07.12.2020 02:00 3,3 C 2,8 C 2,8 C 99 % 997,6 hPa 0,0 l/m 0 min 2 min 0 W/m 12,9 km/h (3 Bft) 95,74 %
07.12.2020 02:02 3,3 C 2,8 C 2,8 C 99 % 997,5 hPa 0,0 l/m 0 min 2 min 0 W/m 9,7 km/h (2 Bft) 95,65 %
07.12.2020 02:04 3,3 C 2,8 C 2,8 C 99 % 997,4 hPa 0,2 l/m 0 min 2 min 0 W/m 6,4 km/h (2 Bft) 95,74 %
07.12.2020 02:06 3,3 C 2,8 C 2,8 C 99 % 997,4 hPa 0,0 l/m 0 min 2 min 0 W/m 19,3 km/h (3 Bft) 93,62 %
07.12.2020 02:08 3,3 C 2,8 C 2,8 C 99 % 997,4 hPa 0,0 l/m 0 min 2 min 0 W/m 3,2 km/h (1 Bft) 95,74 %
07.12.2020 02:10 3,3 C 2,8 C 2,8 C 99 % 997,4 hPa 0,0 l/m 0 min 2 min 0 W/m 9,7 km/h (2 Bft) 95,74 %
07.12.2020 02:12 3,3 C 2,8 C 2,8 C 99 % 997,4 hPa 0,0 l/m 0 min 2 min 0 W/m 9,7 km/h (2 Bft) 97,87 %
07.12.2020 02:14 3,3 C 2,8 C 2,8 C 99 % 997,2 hPa 0,2 l/m 0 min 2 min 0 W/m 6,4 km/h (2 Bft) 95,65 %
07.12.2020 02:16 3,3 C 2,8 C 2,8 C 99 % 997,1 hPa 0,0 l/m 0 min 2 min 0 W/m 9,7 km/h (2 Bft) 93,62 %
07.12.2020 02:18 3,3 C 2,8 C 2,8 C 99 % 997,1 hPa 0,0 l/m 0 min 2 min 0 W/m 6,4 km/h (2 Bft) 97,87 %
07.12.2020 02:20 3,2 C 2,8 C 2,8 C 99 % 997,2 hPa 0,0 l/m 0 min 2 min 0 W/m 16,1 km/h (3 Bft) 97,87 %
07.12.2020 02:22 3,2 C 2,8 C 2,8 C 99 % 997,2 hPa 0,0 l/m 0 min 2 min 0 W/m 0,0 km/h (0 Bft) 93,62 %
07.12.2020 02:24 3,2 C 2,8 C 2,8 C 99 % 997,2 hPa 0,0 l/m 0 min 2 min 0 W/m 9,7 km/h (2 Bft) 95,65 %
07.12.2020 02:26 3,2 C 2,8 C 2,8 C 99 % 997,3 hPa 0,2 l/m 0 min 2 min 0 W/m 12,9 km/h (3 Bft) 93,62 %
07.12.2020 02:28 3,2 C 2,8 C 2,8 C 99 % 997,3 hPa 0,0 l/m 0 min 2 min 0 W/m 19,3 km/h (3 Bft) 95,74 %
07.12.2020 02:30 3,2 C 2,8 C 2,8 C 99 % 997,4 hPa 0,0 l/m 0 min 2 min 0 W/m 19,3 km/h (3 Bft) 95,74 %
07.12.2020 02:32 3,2 C 2,8 C 2,8 C 99 % 997,5 hPa 0,0 l/m 0 min 2 min 0 W/m 3,2 km/h (1 Bft) 47,50 %
07.12.2020 02:34 3,2 C 2,8 C 2,8 C 99 % 997,4 hPa 0,2 l/m 0 min 2 min 0 W/m 3,2 km/h (1 Bft) 95,56 %
07.12.2020 02:36 3,2 C 2,8 C 2,8 C 99 % 997,4 hPa 0,0 l/m 0 min 2 min 0 W/m 3,2 km/h (1 Bft) 95,65 %
07.12.2020 02:38 3,2 C 2,8 C 2,8 C 99 % 997,4 hPa 0,0 l/m 0 min 2 min 0 W/m 6,4 km/h (2 Bft) 95,74 %
07.12.2020 02:40 3,2 C 2,8 C 2,8 C 99 % 997,4 hPa 0,0 l/m 0 min 2 min 0 W/m 9,7 km/h (2 Bft) 95,74 %
07.12.2020 02:42 3,2 C 2,8 C 2,8 C 99 % 997,3 hPa 0,0 l/m 0 min 2 min 0 W/m 16,1 km/h (3 Bft) 97,87 %
07.12.2020 02:44 3,2 C 2,8 C 2,8 C 99 % 997,3 hPa 0,0 l/m 0 min 2 min 0 W/m 12,9 km/h (3 Bft) 97,87 %
07.12.2020 02:46 3,2 C 2,8 C 2,8 C 99 % 997,4 hPa 0,0 l/m 0 min 2 min 0 W/m 12,9 km/h (3 Bft) 95,74 %
07.12.2020 02:48 3,2 C 2,8 C 2,8 C 99 % 997,2 hPa 0,0 l/m 0 min 2 min 0 W/m 6,4 km/h (2 Bft) 97,83 %
07.12.2020 02:50 3,2 C 2,8 C 2,8 C 99 % 997,2 hPa 0,2 l/m 0 min 2 min 0 W/m 9,7 km/h (2 Bft) 97,87 %
07.12.2020 02:52 3,2 C 2,8 C 2,8 C 99 % 997,1 hPa 0,0 l/m 0 min 2 min 0 W/m 12,9 km/h (3 Bft) 97,87 %
07.12.2020 02:54 3,2 C 2,8 C 2,8 C 99 % 997,1 hPa 0,2 l/m 0 min 2 min 0 W/m 3,2 km/h (1 Bft) 95,74 %
07.12.2020 02:56 3,2 C 2,8 C 2,8 C 99 % 997,1 hPa 0,0 l/m 0 min 2 min 0 W/m 12,9 km/h (3 Bft) 95,74 %
07.12.2020 02:58 3,2 C 2,8 C 2,8 C 99 % 997,1 hPa 0,0 l/m 0 min 2 min 0 W/m 12,9 km/h (3 Bft) 97,87 %
07.12.2020 03:00 3,2 C 2,8 C 2,8 C 99 % 997,1 hPa 0,0 l/m 0 min 2 min 0 W/m 6,4 km/h (2 Bft) 97,83 %
07.12.2020 03:02 3,2 C 2,8 C 2,8 C 99 % 997,1 hPa 0,0 l/m 0 min 2 min 0 W/m 9,7 km/h (2 Bft) 97,87 %
07.12.2020 03:04 3,2 C 2,8 C 2,8 C 99 % 997,1 hPa 0,0 l/m 0 min 2 min 0 W/m 19,3 km/h (3 Bft) 95,74 %
07.12.2020 03:06 3,2 C 2,8 C 2,8 C 99 % 997,1 hPa 0,2 l/m 0 min 2 min 0 W/m 9,7 km/h (2 Bft) 97,87 %
07.12.2020 03:08 3,2 C 2,8 C 2,8 C 99 % 997,0 hPa 0,0 l/m 0 min 2 min 0 W/m 6,4 km/h (2 Bft) 97,87 %
07.12.2020 03:10 3,3 C 2,8 C 2,8 C 99 % 996,9 hPa 0,0 l/m 0 min 2 min 0 W/m 12,9 km/h (3 Bft) 100,00 %
07.12.2020 03:12 3,3 C 2,8 C 2,8 C 99 % 996,9 hPa 0,2 l/m 0 min 2 min 0 W/m 12,9 km/h (3 Bft) 97,83 %
07.12.2020 03:14 3,3 C 2,8 C 2,8 C 99 % 996,9 hPa 0,0 l/m 0 min 2 min 0 W/m 9,7 km/h (2 Bft) 100,00 %
07.12.2020 03:16 3,3 C 2,8 C 2,8 C 99 % 996,8 hPa 0,0 l/m 0 min 2 min 0 W/m 12,9 km/h (3 Bft) 100,00 %
07.12.2020 03:18 3,3 C 2,8 C 2,8 C 99 % 996,8 hPa 0,0 l/m 0 min 2 min 0 W/m 16,1 km/h (3 Bft) 97,87 %
07.12.2020 03:20 3,3 C 2,8 C 2,8 C 99 % 996,8 hPa 0,0 l/m 0 min 2 min 0 W/m 16,1 km/h (3 Bft) 100,00 %
07.12.2020 03:22 3,3 C 2,8 C 2,8 C 99 % 996,8 hPa 0,0 l/m 0 min 2 min 0 W/m 12,9 km/h (3 Bft) 97,87 %
07.12.2020 03:24 3,3 C 2,8 C 2,8 C 99 % 996,8 hPa 0,2 l/m 0 min 2 min 0 W/m 6,4 km/h (2 Bft) 100,00 %
07.12.2020 03:26 3,3 C 2,8 C 2,8 C 99 % 996,8 hPa 0,0 l/m 0 min 2 min 0 W/m 6,4 km/h (2 Bft) 97,87 %
07.12.2020 03:28 3,3 C 2,8 C 2,8 C 99 % 996,8 hPa 0,0 l/m 0 min 2 min 0 W/m 16,1 km/h (3 Bft) 100,00 %
07.12.2020 03:30 3,3 C 2,8 C 2,8 C 99 % 996,9 hPa 0,0 l/m 0 min 2 min 0 W/m 19,3 km/h (3 Bft) 100,00 %
07.12.2020 03:32 3,3 C 2,8 C 2,8 C 99 % 996,8 hPa 0,2 l/m 0 min 2 min 0 W/m 3,2 km/h (1 Bft) 100,00 %
07.12.2020 03:34 3,3 C 2,8 C 2,8 C 99 % 996,8 hPa 0,0 l/m 0 min 2 min 0 W/m 3,2 km/h (1 Bft) 97,87 %
07.12.2020 03:36 3,3 C 2,8 C 2,8 C 99 % 996,8 hPa 0,0 l/m 0 min 2 min 0 W/m 16,1 km/h (3 Bft) 100,00 %
07.12.2020 03:38 3,3 C 2,8 C 2,8 C 99 % 996,7 hPa 0,0 l/m 0 min 2 min 0 W/m 3,2 km/h (1 Bft) 100,00 %
07.12.2020 03:40 3,3 C 2,8 C 2,8 C 99 % 996,7 hPa 0,0 l/m 0 min 2 min 0 W/m 6,4 km/h (2 Bft) 100,00 %
07.12.2020 03:42 3,3 C 2,8 C 2,8 C 99 % 996,7 hPa 0,0 l/m 0 min 2 min 0 W/m 12,9 km/h (3 Bft) 97,87 %
07.12.2020 03:44 3,3 C 2,8 C 2,8 C 99 % 996,7 hPa 0,0 l/m 0 min 2 min 0 W/m 6,4 km/h (2 Bft) 100,00 %
07.12.2020 03:46 3,3 C 2,8 C 2,8 C 99 % 996,7 hPa 0,0 l/m 0 min 2 min 0 W/m 12,9 km/h (3 Bft) 100,00 %
07.12.2020 03:48 3,3 C 2,8 C 2,8 C 99 % 996,7 hPa 0,0 l/m 0 min 2 min 0 W/m 3,2 km/h (1 Bft) 97,87 %
07.12.2020 03:50 3,3 C 2,8 C 2,8 C 99 % 996,7 hPa 0,2 l/m 0 min 2 min 0 W/m 9,7 km/h (2 Bft) 100,00 %
07.12.2020 03:52 3,3 C 2,8 C 2,8 C 99 % 996,7 hPa 0,0 l/m 0 min 2 min 0 W/m 12,9 km/h (3 Bft) 97,87 %
07.12.2020 03:54 3,3 C 2,8 C 2,8 C 99 % 996,6 hPa 0,0 l/m 0 min 2 min 0 W/m 9,7 km/h (2 Bft) 100,00 %
07.12.2020 03:56 3,3 C 2,8 C 2,8 C 99 % 996,6 hPa 0,0 l/m 0 min 2 min 0 W/m 6,4 km/h (2 Bft) 100,00 %
07.12.2020 03:58 3,3 C 2,8 C 2,8 C 99 % 996,6 hPa 0,2 l/m 0 min 2 min 0 W/m 9,7 km/h (2 Bft) 100,00 %
07.12.2020 04:00 3,2 C 2,2 C 2,8 C 99 % 996,6 hPa 0,0 l/m 0 min 2 min 0 W/m 9,7 km/h (2 Bft) 97,87 %
07.12.2020 04:02 3,2 C 2,2 C 2,8 C 99 % 996,6 hPa 0,0 l/m 0 min 2 min 0 W/m 19,3 km/h (3 Bft) 100,00 %
07.12.2020 04:04 3,2 C 2,8 C 2,8 C 99 % 996,6 hPa 0,0 l/m 0 min 2 min 0 W/m 9,7 km/h (2 Bft) 100,00 %
07.12.2020 04:06 3,2 C 2,2 C 2,8 C 99 % 996,6 hPa 0,0 l/m 0 min 2 min 0 W/m 9,7 km/h (2 Bft) 100,00 %
07.12.2020 04:08 3,1 C 2,2 C 2,8 C 99 % 996,6 hPa 0,0 l/m 0 min 2 min 0 W/m 16,1 km/h (3 Bft) 100,00 %
07.12.2020 04:10 3,1 C 2,2 C 2,8 C 99 % 996,6 hPa 0,0 l/m 0 min 2 min 0 W/m 16,1 km/h (3 Bft) 100,00 %
07.12.2020 04:12 3,1 C 2,2 C 2,8 C 99 % 996,6 hPa 0,0 l/m 0 min 2 min 0 W/m 16,1 km/h (3 Bft) 100,00 %
07.12.2020 04:14 3,1 C 2,2 C 2,8 C 99 % 996,6 hPa 0,2 l/m 0 min 2 min 0 W/m 12,9 km/h (3 Bft) 97,87 %
07.12.2020 04:16 3,1 C 2,2 C 2,8 C 99 % 996,6 hPa 0,0 l/m 0 min 2 min 0 W/m 16,1 km/h (3 Bft) 97,87 %
07.12.2020 04:18 3,1 C 2,2 C 2,8 C 99 % 996,6 hPa 0,0 l/m 0 min 2 min 0 W/m 16,1 km/h (3 Bft) 95,74 %
07.12.2020 04:20 3,0 C 2,2 C 2,8 C 99 % 996,7 hPa 0,0 l/m 0 min 2 min 0 W/m 12,9 km/h (3 Bft) 97,83 %
07.12.2020 04:22 3,0 C 2,2 C 2,8 C 99 % 996,7 hPa 0,2 l/m 0 min 2 min 0 W/m 19,3 km/h (3 Bft) 95,74 %
07.12.2020 04:24 3,0 C 2,2 C 2,8 C 99 % 996,8 hPa 0,0 l/m 0 min 2 min 0 W/m 6,4 km/h (2 Bft) 97,87 %
07.12.2020 04:26 3,0 C 2,2 C 2,8 C 99 % 996,9 hPa 0,0 l/m 0 min 2 min 0 W/m 16,1 km/h (3 Bft) 97,87 %
07.12.2020 04:28 3,0 C 2,2 C 2,8 C 99 % 996,9 hPa 0,0 l/m 0 min 2 min 0 W/m 16,1 km/h (3 Bft) 95,74 %
07.12.2020 04:30 3,0 C 2,2 C 2,8 C 99 % 996,9 hPa 0,0 l/m 0 min 2 min 0 W/m 19,3 km/h (3 Bft) 97,87 %
07.12.2020 04:32 3,0 C 2,2 C 2,8 C 99 % 996,9 hPa 0,0 l/m 0 min 2 min 0 W/m 19,3 km/h (3 Bft) 97,83 %
07.12.2020 04:34 3,0 C 2,2 C 2,8 C 99 % 997,0 hPa 0,0 l/m 0 min 2 min 0 W/m 19,3 km/h (3 Bft) 97,87 %
07.12.2020 04:36 3,0 C 2,2 C 2,8 C 99 % 997,0 hPa 0,0 l/m 0 min 2 min 0 W/m 19,3 km/h (3 Bft) 97,87 %
07.12.2020 04:38 3,0 C 2,2 C 2,8 C 99 % 996,9 hPa 0,0 l/m 0 min 2 min 0 W/m 12,9 km/h (3 Bft) 97,87 %
07.12.2020 04:40 3,0 C 2,2 C 2,8 C 99 % 996,9 hPa 0,0 l/m 0 min 2 min 0 W/m 9,7 km/h (2 Bft) 97,87 %
07.12.2020 04:42 3,0 C 2,2 C 2,8 C 99 % 996,9 hPa 0,2 l/m 0 min 2 min 0 W/m 3,2 km/h (1 Bft) 95,74 %
07.12.2020 04:44 3,0 C 2,2 C 2,8 C 99 % 996,9 hPa 0,0 l/m 0 min 2 min 0 W/m 6,4 km/h (2 Bft) 97,83 %
07.12.2020 04:46 3,0 C 2,2 C 2,8 C 99 % 997,0 hPa 0,0 l/m 0 min 2 min 0 W/m 9,7 km/h (2 Bft) 95,74 %
07.12.2020 04:48 3,0 C 2,2 C 2,8 C 99 % 996,9 hPa 0,0 l/m 0 min 2 min 0 W/m 6,4 km/h (2 Bft) 97,87 %
07.12.2020 04:50 3,0 C 2,2 C 2,8 C 99 % 996,8 hPa 0,0 l/m 0 min 2 min 0 W/m 9,7 km/h (2 Bft) 95,74 %
07.12.2020 04:52 3,0 C 2,2 C 2,8 C 99 % 996,8 hPa 0,0 l/m 0 min 0 min 0 W/m 9,7 km/h (2 Bft) 95,74 %
07.12.2020 04:54 3,0 C 2,2 C 2,8 C 99 % 996,9 hPa 0,0 l/m 0 min 2 min 0 W/m 6,4 km/h (2 Bft) 97,87 %
07.12.2020 04:56 3,0 C 2,2 C 2,8 C 99 % 996,8 hPa 0,0 l/m 0 min 2 min 0 W/m 9,7 km/h (2 Bft) 97,83 %
07.12.2020 04:58 3,0 C 2,2 C 2,8 C 99 % 996,8 hPa 0,0 l/m 0 min 2 min 0 W/m 9,7 km/h (2 Bft) 97,87 %
07.12.2020 05:00 3,0 C 2,2 C 2,8 C 99 % 996,7 hPa 0,0 l/m 0 min 2 min 0 W/m 12,9 km/h (3 Bft) 95,74 %
07.12.2020 05:02 3,0 C 2,2 C 2,8 C 99 % 996,7 hPa 0,0 l/m 0 min 2 min 0 W/m 9,7 km/h (2 Bft) 97,87 %
07.12.2020 05:04 3,0 C 2,2 C 2,8 C 99 % 996,7 hPa 0,0 l/m 0 min 2 min 0 W/m 19,3 km/h (3 Bft) 97,87 %
07.12.2020 05:06 3,0 C 2,2 C 2,8 C 99 % 996,6 hPa 0,2 l/m 0 min 2 min 0 W/m 12,9 km/h (3 Bft) 97,83 %
07.12.2020 05:08 3,0 C 2,2 C 2,8 C 99 % 996,6 hPa 0,0 l/m 0 min 2 min 0 W/m 3,2 km/h (1 Bft) 97,87 %
07.12.2020 05:10 3,0 C 2,2 C 2,8 C 99 % 996,6 hPa 0,0 l/m 0 min 2 min 0 W/m 16,1 km/h (3 Bft) 97,87 %
07.12.2020 05:12 3,0 C 2,2 C 2,8 C 99 % 996,6 hPa 0,0 l/m 0 min 2 min 0 W/m 16,1 km/h (3 Bft) 95,74 %
07.12.2020 05:14 3,0 C 2,2 C 2,8 C 99 % 996,7 hPa 0,0 l/m 0 min 0 min 0 W/m 16,1 km/h (3 Bft) 97,87 %
07.12.2020 05:16 3,0 C 2,2 C 2,8 C 99 % 996,7 hPa 0,0 l/m 0 min 0 min 0 W/m 16,1 km/h (3 Bft) 97,87 %
07.12.2020 05:18 3,0 C 2,2 C 2,8 C 99 % 996,7 hPa 0,0 l/m 0 min 0 min 0 W/m 19,3 km/h (3 Bft) 97,83 %
07.12.2020 05:20 3,0 C 2,2 C 2,8 C 99 % 996,8 hPa 0,0 l/m 0 min 0 min 0 W/m 19,3 km/h (3 Bft) 97,87 %
07.12.2020 05:22 2,9 C 2,2 C 2,8 C 99 % 996,7 hPa 0,0 l/m 0 min 0 min 0 W/m 16,1 km/h (3 Bft) 93,62 %
07.12.2020 05:24 2,9 C 2,2 C 2,8 C 99 % 996,7 hPa 0,0 l/m 0 min 0 min 0 W/m 29,0 km/h (5 Bft) 97,87 %
07.12.2020 05:26 2,9 C 2,2 C 2,8 C 99 % 996,7 hPa 0,0 l/m 0 min 0 min 0 W/m 16,1 km/h (3 Bft) 97,87 %
07.12.2020 05:28 2,9 C 2,2 C 2,8 C 99 % 996,7 hPa 0,0 l/m 0 min 0 min 0 W/m 16,1 km/h (3 Bft) 65,96 %
07.12.2020 05:30 2,9 C 2,2 C 2,8 C 99 % 996,7 hPa 0,0 l/m 0 min 0 min 0 W/m 3,2 km/h (1 Bft) 80,56 %
07.12.2020 05:32 2,9 C 2,2 C 2,8 C 99 % 996,7 hPa 0,0 l/m 0 min 2 min 0 W/m 12,9 km/h (3 Bft) 97,87 %
07.12.2020 05:34 2,9 C 2,2 C 2,8 C 99 % 996,8 hPa 0,0 l/m 0 min 2 min 0 W/m 9,7 km/h (2 Bft) 97,87 %
07.12.2020 05:36 2,9 C 2,2 C 2,8 C 99 % 996,8 hPa 0,0 l/m 0 min 2 min 0 W/m 6,4 km/h (2 Bft) 97,87 %
07.12.2020 05:38 3,0 C 2,2 C 2,8 C 99 % 996,8 hPa 0,0 l/m 0 min 0 min 0 W/m 0,0 km/h (0 Bft) 93,62 %
07.12.2020 05:40 3,0 C 2,2 C 2,8 C 99 % 996,8 hPa 0,0 l/m 0 min 2 min 0 W/m 3,2 km/h (1 Bft) 97,87 %
07.12.2020 05:42 3,0 C 2,2 C 2,8 C 99 % 996,8 hPa 0,0 l/m 0 min 2 min 0 W/m 3,2 km/h (1 Bft) 97,83 %
07.12.2020 05:44 3,0 C 2,2 C 2,8 C 99 % 996,7 hPa 0,0 l/m 0 min 2 min 0 W/m 6,4 km/h (2 Bft) 95,74 %
07.12.2020 05:46 3,0 C 2,2 C 2,8 C 99 % 996,7 hPa 0,0 l/m 0 min 2 min 0 W/m 12,9 km/h (3 Bft) 100,00 %
07.12.2020 05:48 3,0 C 2,2 C 2,8 C 99 % 996,7 hPa 0,0 l/m 0 min 2 min 0 W/m 16,1 km/h (3 Bft) 100,00 %
07.12.2020 05:50 3,0 C 2,2 C 2,8 C 99 % 996,6 hPa 0,0 l/m 0 min 2 min 0 W/m 12,9 km/h (3 Bft) 97,87 %
07.12.2020 05:52 3,0 C 2,2 C 2,8 C 99 % 996,5 hPa 0,0 l/m 0 min 2 min 0 W/m 12,9 km/h (3 Bft) 100,00 %
07.12.2020 05:54 2,9 C 2,2 C 2,8 C 99 % 996,4 hPa 0,0 l/m 0 min 2 min 0 W/m 12,9 km/h (3 Bft) 97,83 %
07.12.2020 05:56 3,0 C 2,2 C 2,8 C 99 % 996,4 hPa 0,2 l/m 0 min 2 min 0 W/m 3,2 km/h (1 Bft) 100,00 %
07.12.2020 05:58 2,9 C 2,2 C 2,8 C 99 % 996,4 hPa 0,0 l/m 0 min 2 min 0 W/m 19,3 km/h (3 Bft) 100,00 %
07.12.2020 06:00 2,9 C 2,2 C 2,8 C 99 % 996,4 hPa 0,0 l/m 0 min 2 min 0 W/m 12,9 km/h (3 Bft) 97,87 %
07.12.2020 06:02 2,9 C 2,2 C 2,8 C 99 % 996,5 hPa 0,0 l/m 0 min 2 min 0 W/m 25,7 km/h (4 Bft) 100,00 %
07.12.2020 06:04 2,9 C 2,2 C 2,8 C 99 % 996,5 hPa 0,0 l/m 0 min 2 min 0 W/m 6,4 km/h (2 Bft) 100,00 %
07.12.2020 06:06 2,9 C 2,2 C 2,8 C 99 % 996,7 hPa 0,0 l/m 0 min 2 min 0 W/m 9,7 km/h (2 Bft) 100,00 %
07.12.2020 06:08 2,9 C 2,2 C 2,8 C 99 % 996,8 hPa 0,0 l/m 0 min 2 min 0 W/m 16,1 km/h (3 Bft) 100,00 %
07.12.2020 06:10 3,0 C 2,2 C 2,8 C 99 % 996,9 hPa 0,2 l/m 0 min 2 min 0 W/m 25,7 km/h (4 Bft) 97,87 %
07.12.2020 06:12 2,9 C 2,2 C 2,8 C 99 % 996,9 hPa 0,0 l/m 0 min 2 min 0 W/m 22,5 km/h (4 Bft) 100,00 %
07.12.2020 06:14 3,0 C 2,2 C 2,8 C 99 % 996,9 hPa 0,0 l/m 0 min 2 min 0 W/m 16,1 km/h (3 Bft) 100,00 %
07.12.2020 06:16 3,0 C 2,2 C 2,8 C 99 % 996,9 hPa 0,0 l/m 0 min 2 min 0 W/m 6,4 km/h (2 Bft) 100,00 %
07.12.2020 06:18 2,9 C 2,2 C 2,8 C 99 % 996,9 hPa 0,0 l/m 0 min 2 min 0 W/m 16,1 km/h (3 Bft) 97,87 %
07.12.2020 06:20 3,0 C 2,2 C 2,8 C 99 % 996,9 hPa 0,0 l/m 0 min 2 min 0 W/m 22,5 km/h (4 Bft) 100,00 %
07.12.2020 06:22 3,0 C 2,2 C 2,8 C 99 % 996,9 hPa 0,0 l/m 0 min 2 min 0 W/m 25,7 km/h (4 Bft) 100,00 %
07.12.2020 06:24 3,0 C 2,2 C 2,8 C 99 % 996,9 hPa 0,0 l/m 0 min 2 min 0 W/m 16,1 km/h (3 Bft) 100,00 %
07.12.2020 06:26 2,9 C 2,2 C 2,8 C 99 % 996,9 hPa 0,0 l/m 0 min 2 min 0 W/m 9,7 km/h (2 Bft) 70,21 %
07.12.2020 06:28 2,9 C 2,2 C 2,8 C 99 % 996,9 hPa 0,2 l/m 0 min 2 min 0 W/m 19,3 km/h (3 Bft) 82,86 %
07.12.2020 06:30 3,0 C 2,2 C 2,8 C 99 % 996,9 hPa 0,0 l/m 0 min 2 min 0 W/m 25,7 km/h (4 Bft) 100,00 %
07.12.2020 06:32 2,9 C 2,2 C 2,8 C 99 % 996,8 hPa 0,0 l/m 0 min 2 min 0 W/m 35,4 km/h (5 Bft) 100,00 %
07.12.2020 06:34 2,9 C 2,2 C 2,8 C 99 % 996,8 hPa 0,0 l/m 0 min 2 min 0 W/m 22,5 km/h (4 Bft) 100,00 %
07.12.2020 06:36 3,0 C 2,2 C 2,8 C 99 % 996,9 hPa 0,0 l/m 0 min 2 min 0 W/m 12,9 km/h (3 Bft) 100,00 %
07.12.2020 06:38 2,9 C 2,2 C 2,8 C 99 % 996,7 hPa 0,0 l/m 0 min 0 min 0 W/m 22,5 km/h (4 Bft) 100,00 %
07.12.2020 06:40 3,0 C 2,2 C 2,8 C 99 % 996,6 hPa 0,0 l/m 0 min 2 min 0 W/m 22,5 km/h (4 Bft) 100,00 %
07.12.2020 06:42 3,0 C 2,2 C 2,8 C 99 % 996,7 hPa 0,0 l/m 0 min 2 min 0 W/m 16,1 km/h (3 Bft) 97,87 %
07.12.2020 06:44 2,9 C 2,2 C 2,8 C 99 % 996,7 hPa 0,0 l/m 0 min 2 min 0 W/m 16,1 km/h (3 Bft) 100,00 %
07.12.2020 06:46 2,9 C 2,2 C 2,8 C 99 % 996,7 hPa 0,0 l/m 0 min 2 min 0 W/m 19,3 km/h (3 Bft) 100,00 %
07.12.2020 06:48 2,9 C 2,2 C 2,8 C 99 % 996,8 hPa 0,0 l/m 0 min 2 min 0 W/m 22,5 km/h (4 Bft) 100,00 %
07.12.2020 06:50 2,9 C 2,2 C 2,8 C 99 % 996,8 hPa 0,0 l/m 0 min 2 min 0 W/m 19,3 km/h (3 Bft) 97,87 %
07.12.2020 06:52 2,9 C 2,2 C 2,8 C 99 % 996,8 hPa 0,0 l/m 0 min 2 min 0 W/m 16,1 km/h (3 Bft) 100,00 %
07.12.2020 06:54 2,9 C 2,2 C 2,8 C 99 % 996,7 hPa 0,0 l/m 0 min 2 min 0 W/m 19,3 km/h (3 Bft) 100,00 %
07.12.2020 06:56 2,9 C 2,2 C 2,8 C 99 % 996,8 hPa 0,0 l/m 0 min 2 min 0 W/m 25,7 km/h (4 Bft) 100,00 %
07.12.2020 06:58 2,9 C 2,2 C 2,8 C 99 % 996,8 hPa 0,0 l/m 0 min 2 min 0 W/m 25,7 km/h (4 Bft) 100,00 %
07.12.2020 07:00 2,9 C 2,2 C 2,8 C 99 % 996,8 hPa 0,0 l/m 0 min 2 min 0 W/m 25,7 km/h (4 Bft) 100,00 %
07.12.2020 07:02 2,9 C 2,2 C 2,8 C 99 % 996,9 hPa 0,0 l/m 0 min 2 min 0 W/m 29,0 km/h (5 Bft) 97,83 %
07.12.2020 07:04 2,9 C 2,2 C 2,8 C 99 % 996,9 hPa 0,2 l/m 0 min 2 min 0 W/m 19,3 km/h (3 Bft) 97,87 %
07.12.2020 07:06 2,9 C 2,2 C 2,8 C 99 % 996,9 hPa 0,0 l/m 0 min 2 min 0 W/m 6,4 km/h (2 Bft) 97,87 %
07.12.2020 07:08 2,9 C 2,2 C 2,8 C 99 % 996,8 hPa 0,0 l/m 0 min 2 min 0 W/m 25,7 km/h (4 Bft) 97,87 %
07.12.2020 07:10 2,9 C 2,2 C 2,8 C 99 % 996,8 hPa 0,0 l/m 0 min 2 min 0 W/m 25,7 km/h (4 Bft) 100,00 %
07.12.2020 07:12 2,9 C 2,2 C 2,8 C 99 % 996,9 hPa 0,0 l/m 0 min 2 min 0 W/m 19,3 km/h (3 Bft) 97,56 %
07.12.2020 07:14 2,9 C 2,2 C 2,8 C 99 % 996,8 hPa 0,0 l/m 0 min 2 min 0 W/m 19,3 km/h (3 Bft) 97,22 %
07.12.2020 07:16 2,9 C 2,2 C 2,8 C 99 % 996,9 hPa 0,0 l/m 0 min 2 min 0 W/m 19,3 km/h (3 Bft) 96,08 %
07.12.2020 07:18 2,9 C 2,2 C 2,8 C 99 % 997,0 hPa 0,0 l/m 0 min 2 min 0 W/m 19,3 km/h (3 Bft) 97,83 %
07.12.2020 07:20 2,9 C 2,2 C 2,8 C 99 % 996,9 hPa 0,0 l/m 0 min 2 min 0 W/m 22,5 km/h (4 Bft) 97,96 %
07.12.2020 07:22 2,9 C 2,2 C 2,8 C 99 % 996,8 hPa 0,0 l/m 0 min 2 min 0 W/m 16,1 km/h (3 Bft) 95,74 %
07.12.2020 07:24 2,9 C 2,2 C 2,8 C 99 % 996,9 hPa 0,0 l/m 0 min 2 min 0 W/m 22,5 km/h (4 Bft) 56,52 %
07.12.2020 07:26 2,8 C 2,2 C 2,8 C 99 % 996,9 hPa 0,0 l/m 0 min 2 min 0 W/m 29,0 km/h (5 Bft) 95,56 %
07.12.2020 07:28 2,8 C 2,2 C 2,8 C 99 % 996,9 hPa 0,0 l/m 0 min 2 min 0 W/m 29,0 km/h (5 Bft) 97,83 %
07.12.2020 07:30 2,8 C 2,2 C 2,8 C 99 % 996,9 hPa 0,0 l/m 0 min 2 min 0 W/m 22,5 km/h (4 Bft) 97,96 %
07.12.2020 07:32 2,8 C 2,2 C 2,8 C 99 % 996,9 hPa 0,0 l/m 0 min 2 min 0 W/m 19,3 km/h (3 Bft) 97,96 %
07.12.2020 07:34 2,8 C 2,2 C 2,8 C 99 % 996,9 hPa 0,0 l/m 0 min 2 min 0 W/m 16,1 km/h (3 Bft) 97,92 %
07.12.2020 07:36 2,8 C 2,2 C 2,8 C 99 % 997,0 hPa 0,0 l/m 0 min 2 min 0 W/m 25,7 km/h (4 Bft) 93,62 %
07.12.2020 07:38 2,8 C 2,2 C 2,8 C 99 % 997,0 hPa 0,0 l/m 0 min 2 min 0 W/m 29,0 km/h (5 Bft) 93,62 %
07.12.2020 07:40 2,8 C 2,2 C 2,8 C 99 % 997,1 hPa 0,0 l/m 0 min 2 min 0 W/m 25,7 km/h (4 Bft) 95,00 %
07.12.2020 07:42 2,8 C 2,2 C 2,8 C 99 % 997,0 hPa 0,0 l/m 0 min 2 min 0 W/m 25,7 km/h (4 Bft) 93,75 %
07.12.2020 07:44 2,8 C 2,2 C 2,8 C 99 % 997,0 hPa 0,2 l/m 0 min 2 min 0 W/m 19,3 km/h (3 Bft) 95,83 %
07.12.2020 07:46 2,8 C 2,2 C 2,8 C 99 % 997,0 hPa 0,0 l/m 0 min 2 min 0 W/m 19,3 km/h (3 Bft) 95,83 %
07.12.2020 07:48 2,8 C 2,2 C 2,3 C 99 % 997,0 hPa 0,0 l/m 0 min 2 min 0 W/m 29,0 km/h (5 Bft) 95,92 %
07.12.2020 07:50 2,7 C 2,2 C 2,8 C 99 % 997,1 hPa 0,0 l/m 0 min 2 min 0 W/m 19,3 km/h (3 Bft) 95,65 %
07.12.2020 07:52 2,7 C 2,2 C 2,8 C 99 % 997,1 hPa 0,0 l/m 0 min 2 min 0 W/m 25,7 km/h (4 Bft) 93,75 %
07.12.2020 07:56 2,7 C 2,2 C 2,8 C 99 % 997,1 hPa 0,0 l/m 0 min 4 min 0 W/m 22,5 km/h (4 Bft) 96,23 %
07.12.2020 07:58 2,7 C 2,2 C 2,8 C 99 % 997,1 hPa 0,0 l/m 0 min 2 min 0 W/m 22,5 km/h (4 Bft) 100,00 %
07.12.2020 08:00 2,7 C 2,2 C 2,3 C 99 % 997,1 hPa 0,0 l/m 0 min 2 min 0 W/m 22,5 km/h (4 Bft) 97,78 %
07.12.2020 08:02 2,7 C 2,2 C 2,3 C 99 % 997,1 hPa 0,0 l/m 0 min 2 min 0 W/m 19,3 km/h (3 Bft) 97,87 %
07.12.2020 08:04 2,7 C 2,2 C 2,3 C 99 % 997,2 hPa 0,0 l/m 0 min 2 min 0 W/m 16,1 km/h (3 Bft) 94,55 %
07.12.2020 08:06 2,7 C 2,2 C 2,8 C 99 % 997,2 hPa 0,2 l/m 0 min 2 min 0 W/m 19,3 km/h (3 Bft) 98,00 %
07.12.2020 08:08 2,7 C 2,2 C 2,3 C 99 % 997,2 hPa 0,0 l/m 0 min 2 min 0 W/m 29,0 km/h (5 Bft) 97,83 %
07.12.2020 08:10 2,7 C 2,2 C 2,3 C 99 % 997,2 hPa 0,0 l/m 0 min 2 min 0 W/m 22,5 km/h (4 Bft) 97,87 %
07.12.2020 08:12 2,7 C 2,2 C 2,3 C 99 % 997,2 hPa 0,0 l/m 0 min 2 min 0 W/m 22,5 km/h (4 Bft) 94,44 %
07.12.2020 08:14 2,7 C 2,2 C 2,3 C 99 % 997,3 hPa 0,0 l/m 0 min 2 min 0 W/m 19,3 km/h (3 Bft) 97,87 %
07.12.2020 08:16 2,7 C 2,2 C 2,3 C 99 % 997,3 hPa 0,0 l/m 0 min 2 min 0 W/m 19,3 km/h (3 Bft) 96,36 %
07.12.2020 08:18 2,6 C 2,2 C 2,3 C 99 % 997,3 hPa 0,0 l/m 0 min 2 min 0 W/m 22,5 km/h (4 Bft) 98,00 %
07.12.2020 08:20 2,6 C 2,2 C 2,3 C 99 % 997,3 hPa 0,2 l/m 0 min 2 min 0 W/m 19,3 km/h (3 Bft) 97,14 %
07.12.2020 08:22 2,6 C 2,2 C 2,3 C 99 % 997,3 hPa 0,0 l/m 0 min 2 min 0 W/m 12,9 km/h (3 Bft) 53,49 %
07.12.2020 08:24 2,6 C 2,2 C 2,3 C 99 % 997,4 hPa 0,0 l/m 0 min 2 min 0 W/m 16,1 km/h (3 Bft) 100,00 %
07.12.2020 08:26 2,6 C 2,2 C 2,3 C 99 % 997,4 hPa 0,0 l/m 0 min 2 min 0 W/m 16,1 km/h (3 Bft) 100,00 %
07.12.2020 08:28 2,6 C 2,2 C 2,3 C 99 % 997,4 hPa 0,0 l/m 0 min 2 min 0 W/m 16,1 km/h (3 Bft) 97,87 %
07.12.2020 08:30 2,6 C 2,2 C 2,3 C 99 % 997,4 hPa 0,0 l/m 0 min 2 min 0 W/m 16,1 km/h (3 Bft) 100,00 %
07.12.2020 08:32 2,6 C 2,2 C 2,8 C 99 % 997,5 hPa 0,2 l/m 0 min 2 min 0 W/m 19,3 km/h (3 Bft) 100,00 %
07.12.2020 08:34 2,6 C 2,2 C 2,3 C 99 % 997,5 hPa 0,0 l/m 0 min 2 min 0 W/m 19,3 km/h (3 Bft) 100,00 %
07.12.2020 08:36 2,6 C 2,2 C 2,3 C 99 % 997,5 hPa 0,0 l/m 0 min 2 min 0 W/m 22,5 km/h (4 Bft) 100,00 %
07.12.2020 08:38 2,6 C 2,2 C 2,8 C 99 % 997,5 hPa 0,0 l/m 0 min 2 min 0 W/m 19,3 km/h (3 Bft) 97,83 %
07.12.2020 08:40 2,6 C 2,2 C 2,3 C 99 % 997,6 hPa 0,0 l/m 0 min 2 min 0 W/m 22,5 km/h (4 Bft) 100,00 %
07.12.2020 08:42 2,7 C 2,2 C 2,3 C 99 % 997,6 hPa 0,0 l/m 0 min 2 min 0 W/m 19,3 km/h (3 Bft) 100,00 %
07.12.2020 08:44 2,6 C 2,2 C 2,3 C 99 % 997,6 hPa 0,0 l/m 0 min 2 min 0 W/m 22,5 km/h (4 Bft) 100,00 %
07.12.2020 08:46 2,6 C 2,2 C 2,3 C 99 % 997,6 hPa 0,0 l/m 0 min 2 min 0 W/m 25,7 km/h (4 Bft) 98,00 %
07.12.2020 08:48 2,6 C 2,2 C 2,3 C 99 % 997,6 hPa 0,0 l/m 0 min 2 min 5 W/m 19,3 km/h (3 Bft) 100,00 %
07.12.2020 08:50 2,7 C 2,2 C 2,3 C 99 % 997,6 hPa 0,0 l/m 0 min 2 min 5 W/m 19,3 km/h (3 Bft) 100,00 %
07.12.2020 08:52 2,7 C 2,2 C 2,8 C 99 % 997,6 hPa 0,0 l/m 0 min 2 min 5 W/m 19,3 km/h (3 Bft) 100,00 %
07.12.2020 08:54 2,7 C 2,2 C 2,8 C 99 % 997,5 hPa 0,2 l/m 0 min 2 min 7 W/m 19,3 km/h (3 Bft) 100,00 %
07.12.2020 08:56 2,7 C 2,2 C 2,3 C 99 % 997,7 hPa 0,0 l/m 0 min 2 min 7 W/m 32,2 km/h (5 Bft) 100,00 %
07.12.2020 08:58 2,6 C 2,2 C 2,3 C 99 % 997,6 hPa 0,0 l/m 0 min 2 min 7 W/m 12,9 km/h (3 Bft) 100,00 %
07.12.2020 09:00 2,7 C 2,2 C 2,8 C 99 % 997,6 hPa 0,0 l/m 0 min 2 min 7 W/m 22,5 km/h (4 Bft) 100,00 %
07.12.2020 09:02 2,7 C 2,2 C 2,8 C 99 % 997,6 hPa 0,0 l/m 0 min 2 min 7 W/m 29,0 km/h (5 Bft) 98,00 %
07.12.2020 09:04 2,7 C 2,2 C 2,8 C 99 % 997,6 hPa 0,0 l/m 0 min 2 min 7 W/m 16,1 km/h (3 Bft) 95,92 %
07.12.2020 09:06 2,7 C 2,2 C 2,8 C 99 % 997,7 hPa 0,0 l/m 0 min 2 min 7 W/m 19,3 km/h (3 Bft) 100,00 %
07.12.2020 09:08 2,7 C 2,2 C 2,8 C 99 % 997,7 hPa 0,0 l/m 0 min 2 min 7 W/m 22,5 km/h (4 Bft) 98,11 %
07.12.2020 09:10 2,7 C 2,2 C 2,8 C 99 % 997,7 hPa 0,0 l/m 0 min 2 min 7 W/m 22,5 km/h (4 Bft) 100,00 %
07.12.2020 09:12 2,7 C 2,2 C 2,8 C 99 % 997,7 hPa 0,0 l/m 0 min 2 min 7 W/m 16,1 km/h (3 Bft) 98,00 %
07.12.2020 09:14 2,7 C 2,2 C 2,8 C 99 % 997,8 hPa 0,2 l/m 0 min 2 min 8 W/m 25,7 km/h (4 Bft) 97,96 %
07.12.2020 09:16 2,7 C 2,2 C 2,8 C 99 % 997,8 hPa 0,0 l/m 0 min 2 min 9 W/m 19,3 km/h (3 Bft) 100,00 %
07.12.2020 09:18 2,7 C 2,2 C 2,8 C 99 % 997,8 hPa 0,0 l/m 0 min 2 min 10 W/m 12,9 km/h (3 Bft) 100,00 %
07.12.2020 09:20 2,7 C 2,2 C 2,8 C 99 % 997,8 hPa 0,0 l/m 0 min 2 min 11 W/m 3,2 km/h (1 Bft) 100,00 %
07.12.2020 09:22 2,7 C 2,2 C 2,8 C 99 % 997,8 hPa 0,0 l/m 0 min 2 min 12 W/m 12,9 km/h (3 Bft) 100,00 %
07.12.2020 09:24 2,7 C 2,2 C 2,8 C 99 % 997,9 hPa 0,0 l/m 0 min 2 min 13 W/m 12,9 km/h (3 Bft) 100,00 %
07.12.2020 09:26 2,7 C 2,2 C 2,8 C 99 % 998,0 hPa 0,0 l/m 0 min 2 min 14 W/m 19,3 km/h (3 Bft) 100,00 %
07.12.2020 09:28 2,7 C 2,2 C 2,8 C 99 % 998,0 hPa 0,0 l/m 0 min 2 min 16 W/m 16,1 km/h (3 Bft) 100,00 %
07.12.2020 09:30 2,7 C 2,2 C 2,8 C 99 % 998,0 hPa 0,0 l/m 0 min 2 min 17 W/m 16,1 km/h (3 Bft) 100,00 %
07.12.2020 09:32 2,7 C 2,2 C 2,8 C 99 % 998,0 hPa 0,0 l/m 0 min 2 min 18 W/m 16,1 km/h (3 Bft) 100,00 %
07.12.2020 09:34 2,7 C 2,2 C 2,8 C 99 % 998,0 hPa 0,2 l/m 0 min 2 min 20 W/m 22,5 km/h (4 Bft) 100,00 %
07.12.2020 09:36 2,7 C 2,2 C 2,8 C 99 % 998,0 hPa 0,0 l/m 0 min 2 min 21 W/m 19,3 km/h (3 Bft) 100,00 %
07.12.2020 09:38 2,7 C 2,2 C 2,8 C 99 % 998,0 hPa 0,0 l/m 0 min 2 min 21 W/m 3,2 km/h (1 Bft) 97,96 %
07.12.2020 09:40 2,7 C 2,2 C 2,8 C 99 % 998,0 hPa 0,0 l/m 0 min 2 min 23 W/m 19,3 km/h (3 Bft) 100,00 %
07.12.2020 09:42 2,8 C 2,2 C 2,8 C 99 % 998,0 hPa 0,0 l/m 0 min 2 min 21 W/m 16,1 km/h (3 Bft) 100,00 %
07.12.2020 09:44 2,8 C 2,2 C 2,8 C 99 % 998,1 hPa 0,0 l/m 0 min 2 min 21 W/m 19,3 km/h (3 Bft) 100,00 %
07.12.2020 09:46 2,8 C 2,2 C 2,8 C 99 % 998,1 hPa 0,0 l/m 0 min 2 min 21 W/m 16,1 km/h (3 Bft) 100,00 %
07.12.2020 09:48 2,8 C 2,2 C 2,8 C 99 % 998,2 hPa 0,0 l/m 0 min 0 min 19 W/m 22,5 km/h (4 Bft) 100,00 %
07.12.2020 09:50 2,8 C 2,2 C 2,8 C 99 % 998,2 hPa 0,0 l/m 0 min 2 min 20 W/m 29,0 km/h (5 Bft) 95,92 %
07.12.2020 09:52 2,8 C 2,2 C 2,8 C 99 % 998,2 hPa 0,0 l/m 0 min 2 min 19 W/m 22,5 km/h (4 Bft) 100,00 %
07.12.2020 09:54 2,7 C 2,2 C 2,8 C 99 % 998,3 hPa 0,0 l/m 0 min 2 min 15 W/m 25,7 km/h (4 Bft) 100,00 %
07.12.2020 09:56 2,7 C 2,2 C 2,8 C 99 % 998,3 hPa 0,0 l/m 0 min 2 min 13 W/m 16,1 km/h (3 Bft) 100,00 %
07.12.2020 09:58 2,7 C 2,2 C 2,8 C 99 % 998,3 hPa 0,0 l/m 0 min 0 min 14 W/m 16,1 km/h (3 Bft) 97,87 %
07.12.2020 10:00 2,7 C 2,2 C 2,8 C 99 % 998,3 hPa 0,0 l/m 0 min 2 min 14 W/m 22,5 km/h (4 Bft) 98,00 %
07.12.2020 10:02 2,7 C 2,2 C 2,8 C 99 % 998,3 hPa 0,0 l/m 0 min 2 min 16 W/m 19,3 km/h (3 Bft) 95,83 %
07.12.2020 10:04 2,7 C 2,2 C 2,8 C 99 % 998,4 hPa 0,0 l/m 0 min 0 min 16 W/m 32,2 km/h (5 Bft) 91,67 %
07.12.2020 10:06 2,7 C 2,2 C 2,8 C 99 % 998,3 hPa 0,0 l/m 0 min 2 min 19 W/m 19,3 km/h (3 Bft) 95,74 %
07.12.2020 10:08 2,7 C 2,2 C 2,8 C 99 % 998,3 hPa 0,2 l/m 0 min 2 min 21 W/m 25,7 km/h (4 Bft) 97,87 %
07.12.2020 10:10 2,7 C 2,2 C 2,8 C 99 % 998,3 hPa 0,0 l/m 0 min 0 min 23 W/m 22,5 km/h (4 Bft) 97,87 %
07.12.2020 10:12 2,7 C 2,2 C 2,8 C 99 % 998,3 hPa 0,0 l/m 0 min 2 min 24 W/m 19,3 km/h (3 Bft) 98,11 %
07.12.2020 10:14 2,7 C 2,2 C 2,8 C 99 % 998,3 hPa 0,0 l/m 0 min 2 min 26 W/m 16,1 km/h (3 Bft) 93,62 %
07.12.2020 10:16 2,7 C 2,2 C 2,8 C 99 % 998,3 hPa 0,0 l/m 0 min 2 min 26 W/m 22,5 km/h (4 Bft) 93,48 %
07.12.2020 10:18 2,7 C 2,2 C 2,8 C 99 % 998,3 hPa 0,0 l/m 0 min 2 min 26 W/m 19,3 km/h (3 Bft) 96,00 %
07.12.2020 10:20 2,7 C 2,2 C 2,8 C 99 % 998,3 hPa 0,0 l/m 0 min 2 min 26 W/m 22,5 km/h (4 Bft) 96,00 %
07.12.2020 10:22 2,7 C 2,2 C 2,8 C 99 % 998,3 hPa 0,0 l/m 0 min 2 min 25 W/m 22,5 km/h (4 Bft) 94,29 %
07.12.2020 10:24 2,7 C 2,2 C 2,8 C 99 % 998,4 hPa 0,0 l/m 0 min 2 min 23 W/m 16,1 km/h (3 Bft) 96,23 %
07.12.2020 10:26 2,7 C 2,2 C 2,8 C 99 % 998,4 hPa 0,0 l/m 0 min 2 min 22 W/m 25,7 km/h (4 Bft) 96,00 %
07.12.2020 10:28 2,7 C 2,2 C 2,8 C 99 % 998,4 hPa 0,0 l/m 0 min 2 min 21 W/m 19,3 km/h (3 Bft) 95,92 %
07.12.2020 10:30 2,7 C 2,2 C 2,8 C 99 % 998,5 hPa 0,0 l/m 0 min 2 min 21 W/m 19,3 km/h (3 Bft) 94,29 %
07.12.2020 10:32 2,7 C 2,2 C 2,8 C 99 % 998,5 hPa 0,0 l/m 0 min 2 min 21 W/m 16,1 km/h (3 Bft) 96,23 %
07.12.2020 10:34 2,7 C 2,2 C 2,8 C 99 % 998,5 hPa 0,0 l/m 0 min 2 min 21 W/m 19,3 km/h (3 Bft) 94,00 %
07.12.2020 10:36 2,7 C 2,2 C 2,8 C 99 % 998,5 hPa 0,0 l/m 0 min 2 min 21 W/m 19,3 km/h (3 Bft) 95,92 %
07.12.2020 10:38 2,8 C 2,2 C 2,8 C 99 % 998,5 hPa 0,2 l/m 0 min 2 min 22 W/m 19,3 km/h (3 Bft) 94,29 %
07.12.2020 10:40 2,8 C 2,2 C 2,8 C 99 % 998,5 hPa 0,0 l/m 0 min 2 min 23 W/m 16,1 km/h (3 Bft) 93,62 %
07.12.2020 10:42 2,8 C 2,2 C 2,8 C 99 % 998,6 hPa 0,0 l/m 0 min 2 min 23 W/m 19,3 km/h (3 Bft) 94,34 %
07.12.2020 10:44 2,8 C 2,2 C 2,8 C 99 % 998,6 hPa 0,0 l/m 0 min 2 min 24 W/m 9,7 km/h (2 Bft) 94,00 %
07.12.2020 10:46 2,8 C 2,2 C 2,8 C 99 % 998,6 hPa 0,0 l/m 0 min 2 min 23 W/m 6,4 km/h (2 Bft) 95,92 %
07.12.2020 10:48 2,8 C 2,2 C 2,8 C 99 % 998,7 hPa 0,0 l/m 0 min 2 min 23 W/m 6,4 km/h (2 Bft) 100,00 %
07.12.2020 10:50 2,8 C 2,2 C 2,8 C 99 % 998,6 hPa 0,0 l/m 0 min 2 min 21 W/m 25,7 km/h (4 Bft) 96,30 %
07.12.2020 10:52 2,8 C 2,2 C 2,8 C 99 % 998,7 hPa 0,0 l/m 0 min 2 min 21 W/m 19,3 km/h (3 Bft) 100,00 %
07.12.2020 10:54 2,8 C 2,2 C 2,8 C 99 % 998,6 hPa 0,2 l/m 0 min 2 min 20 W/m 19,3 km/h (3 Bft) 98,00 %
07.12.2020 10:56 2,8 C 2,2 C 2,8 C 99 % 998,7 hPa 0,0 l/m 0 min 2 min 21 W/m 19,3 km/h (3 Bft) 97,87 %
07.12.2020 10:58 2,9 C 2,2 C 2,8 C 99 % 998,7 hPa 0,0 l/m 0 min 2 min 21 W/m 16,1 km/h (3 Bft) 100,00 %
07.12.2020 11:00 2,9 C 2,2 C 2,8 C 99 % 998,7 hPa 0,0 l/m 0 min 2 min 24 W/m 22,5 km/h (4 Bft) 100,00 %
07.12.2020 11:02 2,9 C 2,2 C 2,8 C 99 % 998,6 hPa 0,0 l/m 0 min 2 min 26 W/m 16,1 km/h (3 Bft) 98,15 %
07.12.2020 11:04 2,9 C 2,2 C 2,8 C 99 % 998,7 hPa 0,0 l/m 0 min 2 min 28 W/m 16,1 km/h (3 Bft) 100,00 %
07.12.2020 11:06 2,9 C 2,2 C 2,8 C 99 % 998,7 hPa 0,0 l/m 0 min 2 min 29 W/m 16,1 km/h (3 Bft) 100,00 %
07.12.2020 11:08 2,9 C 2,2 C 2,8 C 99 % 998,7 hPa 0,0 l/m 0 min 2 min 31 W/m 12,9 km/h (3 Bft) 100,00 %
07.12.2020 11:10 2,9 C 2,2 C 2,8 C 99 % 998,7 hPa 0,0 l/m 0 min 2 min 32 W/m 12,9 km/h (3 Bft) 100,00 %
07.12.2020 11:12 2,9 C 2,2 C 2,8 C 99 % 998,8 hPa 0,2 l/m 0 min 2 min 32 W/m 16,1 km/h (3 Bft) 100,00 %
07.12.2020 11:14 3,0 C 2,2 C 2,8 C 99 % 998,8 hPa 0,0 l/m 0 min 2 min 32 W/m 16,1 km/h (3 Bft) 100,00 %
07.12.2020 11:16 3,0 C 2,2 C 2,8 C 99 % 998,7 hPa 0,0 l/m 0 min 2 min 32 W/m 19,3 km/h (3 Bft) 100,00 %
07.12.2020 11:18 3,0 C 2,2 C 2,8 C 99 % 998,7 hPa 0,0 l/m 0 min 2 min 32 W/m 16,1 km/h (3 Bft) 100,00 %
07.12.2020 11:20 3,0 C 2,2 C 2,8 C 99 % 998,7 hPa 0,0 l/m 0 min 2 min 32 W/m 19,3 km/h (3 Bft) 100,00 %
07.12.2020 11:22 3,0 C 2,2 C 2,8 C 99 % 998,8 hPa 0,0 l/m 0 min 2 min 32 W/m 16,1 km/h (3 Bft) 100,00 %
07.12.2020 11:24 3,0 C 2,2 C 2,8 C 99 % 998,8 hPa 0,0 l/m 0 min 2 min 32 W/m 16,1 km/h (3 Bft) 97,14 %
07.12.2020 11:26 3,0 C 2,2 C 2,8 C 99 % 998,8 hPa 0,0 l/m 0 min 2 min 32 W/m 12,9 km/h (3 Bft) 100,00 %
07.12.2020 11:28 3,0 C 2,2 C 2,8 C 99 % 998,8 hPa 0,0 l/m 0 min 2 min 32 W/m 16,1 km/h (3 Bft) 100,00 %
07.12.2020 11:30 3,0 C 2,2 C 2,8 C 99 % 998,8 hPa 0,0 l/m 0 min 2 min 33 W/m 19,3 km/h (3 Bft) 100,00 %
07.12.2020 11:32 3,0 C 2,2 C 2,8 C 99 % 998,9 hPa 0,0 l/m 0 min 2 min 31 W/m 19,3 km/h (3 Bft) 100,00 %
07.12.2020 11:34 3,0 C 2,2 C 2,8 C 99 % 998,9 hPa 0,0 l/m 0 min 2 min 30 W/m 12,9 km/h (3 Bft) 100,00 %
07.12.2020 11:36 3,1 C 2,2 C 2,8 C 99 % 998,9 hPa 0,0 l/m 0 min 2 min 30 W/m 12,9 km/h (3 Bft) 100,00 %
07.12.2020 11:38 3,1 C 2,8 C 2,8 C 99 % 999,0 hPa 0,0 l/m 0 min 2 min 33 W/m 12,9 km/h (3 Bft) 100,00 %
07.12.2020 11:40 3,1 C 2,2 C 2,8 C 99 % 999,0 hPa 0,0 l/m 0 min 2 min 31 W/m 12,9 km/h (3 Bft) 100,00 %
07.12.2020 11:42 3,1 C 2,8 C 2,8 C 99 % 999,0 hPa 0,0 l/m 0 min 2 min 33 W/m 16,1 km/h (3 Bft) 100,00 %
07.12.2020 11:44 3,1 C 2,8 C 2,8 C 99 % 998,9 hPa 0,0 l/m 0 min 2 min 39 W/m 16,1 km/h (3 Bft) 100,00 %
07.12.2020 11:46 3,1 C 2,8 C 3,4 C 99 % 998,9 hPa 0,2 l/m 0 min 2 min 40 W/m 16,1 km/h (3 Bft) 100,00 %
07.12.2020 11:48 3,1 C 2,8 C 3,4 C 99 % 998,9 hPa 0,0 l/m 0 min 2 min 44 W/m 12,9 km/h (3 Bft) 100,00 %
07.12.2020 11:50 3,1 C 2,8 C 3,4 C 99 % 999,0 hPa 0,0 l/m 0 min 2 min 43 W/m 12,9 km/h (3 Bft) 97,83 %
07.12.2020 11:52 3,1 C 2,8 C 3,4 C 99 % 999,0 hPa 0,0 l/m 0 min 2 min 40 W/m 16,1 km/h (3 Bft) 100,00 %
07.12.2020 11:54 3,2 C 2,8 C 3,4 C 99 % 999,0 hPa 0,0 l/m 0 min 2 min 41 W/m 19,3 km/h (3 Bft) 100,00 %
07.12.2020 11:56 3,2 C 2,8 C 3,4 C 99 % 999,0 hPa 0,0 l/m 0 min 2 min 45 W/m 16,1 km/h (3 Bft) 100,00 %
07.12.2020 11:58 3,2 C 2,8 C 3,4 C 99 % 999,1 hPa 0,0 l/m 0 min 2 min 47 W/m 6,4 km/h (2 Bft) 100,00 %
07.12.2020 12:00 3,2 C 2,8 C 3,4 C 99 % 999,0 hPa 0,0 l/m 0 min 2 min 47 W/m 12,9 km/h (3 Bft) 100,00 %
07.12.2020 12:02 3,3 C 2,8 C 3,4 C 99 % 999,0 hPa 0,0 l/m 0 min 0 min 47 W/m 16,1 km/h (3 Bft) 100,00 %
07.12.2020 12:04 3,3 C 2,8 C 3,4 C 99 % 999,0 hPa 0,0 l/m 0 min 0 min 47 W/m 16,1 km/h (3 Bft) 95,74 %
07.12.2020 12:08 3,3 C 2,8 C 3,4 C 99 % 999,0 hPa 0,0 l/m 0 min 0 min 44 W/m 12,9 km/h (3 Bft) 100,00 %
07.12.2020 12:10 3,3 C 2,8 C 3,4 C 99 % 999,0 hPa 0,0 l/m 0 min 2 min 40 W/m 16,1 km/h (3 Bft) 100,00 %
07.12.2020 12:12 3,3 C 2,8 C 3,4 C 99 % 999,0 hPa 0,0 l/m 0 min 2 min 43 W/m 12,9 km/h (3 Bft) 100,00 %
07.12.2020 12:14 3,3 C 2,8 C 3,4 C 99 % 999,0 hPa 0,0 l/m 0 min 2 min 43 W/m 12,9 km/h (3 Bft) 100,00 %
07.12.2020 12:16 3,3 C 2,8 C 3,4 C 99 % 999,1 hPa 0,0 l/m 0 min 2 min 42 W/m 12,9 km/h (3 Bft) 100,00 %
07.12.2020 12:18 3,3 C 2,8 C 3,4 C 99 % 999,1 hPa 0,0 l/m 0 min 2 min 40 W/m 16,1 km/h (3 Bft) 97,96 %
07.12.2020 12:20 3,3 C 2,8 C 3,4 C 99 % 999,1 hPa 0,0 l/m 0 min 2 min 39 W/m 6,4 km/h (2 Bft) 100,00 %
07.12.2020 12:22 3,3 C 2,8 C 3,4 C 99 % 999,1 hPa 0,0 l/m 0 min 0 min 36 W/m 16,1 km/h (3 Bft) 100,00 %
07.12.2020 12:24 3,3 C 2,8 C 3,4 C 99 % 999,1 hPa 0,0 l/m 0 min 2 min 35 W/m 16,1 km/h (3 Bft) 97,83 %
07.12.2020 12:26 3,3 C 2,8 C 3,4 C 99 % 999,1 hPa 0,0 l/m 0 min 2 min 35 W/m 9,7 km/h (2 Bft) 97,87 %
07.12.2020 12:28 3,3 C 2,8 C 3,4 C 99 % 999,1 hPa 0,0 l/m 0 min 0 min 35 W/m 16,1 km/h (3 Bft) 97,87 %
07.12.2020 12:30 3,4 C 2,8 C 3,4 C 99 % 999,0 hPa 0,0 l/m 0 min 2 min 37 W/m 19,3 km/h (3 Bft) 97,87 %
07.12.2020 12:32 3,4 C 2,8 C 3,4 C 99 % 999,0 hPa 0,0 l/m 0 min 2 min 35 W/m 22,5 km/h (4 Bft) 97,92 %
07.12.2020 12:34 3,4 C 2,8 C 3,4 C 99 % 999,1 hPa 0,0 l/m 0 min 2 min 37 W/m 19,3 km/h (3 Bft) 100,00 %
07.12.2020 12:36 3,4 C 2,8 C 3,4 C 99 % 999,0 hPa 0,0 l/m 0 min 2 min 39 W/m 12,9 km/h (3 Bft) 97,83 %
07.12.2020 12:38 3,4 C 2,8 C 3,4 C 99 % 999,1 hPa 0,0 l/m 0 min 2 min 38 W/m 16,1 km/h (3 Bft) 97,87 %
07.12.2020 12:40 3,4 C 2,8 C 3,4 C 99 % 999,1 hPa 0,2 l/m 0 min 2 min 37 W/m 19,3 km/h (3 Bft) 95,74 %
07.12.2020 12:42 3,4 C 2,8 C 3,4 C 99 % 999,1 hPa 0,0 l/m 0 min 2 min 37 W/m 22,5 km/h (4 Bft) 95,74 %
07.12.2020 12:44 3,4 C 2,8 C 3,4 C 99 % 999,1 hPa 0,0 l/m 0 min 2 min 37 W/m 22,5 km/h (4 Bft) 95,74 %
07.12.2020 12:46 3,4 C 2,8 C 3,4 C 99 % 999,1 hPa 0,0 l/m 0 min 2 min 37 W/m 16,1 km/h (3 Bft) 97,83 %
07.12.2020 12:48 3,4 C 2,8 C 3,4 C 99 % 999,1 hPa 0,0 l/m 0 min 2 min 36 W/m 22,5 km/h (4 Bft) 97,87 %
07.12.2020 12:50 3,3 C 2,8 C 3,4 C 99 % 999,1 hPa 0,0 l/m 0 min 2 min 34 W/m 16,1 km/h (3 Bft) 89,36 %
07.12.2020 12:52 3,3 C 2,8 C 3,4 C 99 % 999,1 hPa 0,0 l/m 0 min 2 min 33 W/m 25,7 km/h (4 Bft) 93,62 %
07.12.2020 12:54 3,3 C 2,8 C 3,4 C 99 % 999,1 hPa 0,0 l/m 0 min 2 min 30 W/m 22,5 km/h (4 Bft) 93,62 %
07.12.2020 12:56 3,3 C 2,8 C 3,4 C 99 % 999,1 hPa 0,0 l/m 0 min 2 min 28 W/m 16,1 km/h (3 Bft) 93,62 %
07.12.2020 12:58 3,3 C 2,8 C 3,4 C 99 % 999,1 hPa 0,0 l/m 0 min 2 min 26 W/m 16,1 km/h (3 Bft) 91,30 %
07.12.2020 13:00 3,3 C 2,8 C 3,4 C 99 % 999,1 hPa 0,0 l/m 0 min 2 min 26 W/m 16,1 km/h (3 Bft) 93,62 %
07.12.2020 13:02 3,3 C 2,8 C 3,4 C 99 % 999,1 hPa 0,0 l/m 0 min 2 min 25 W/m 22,5 km/h (4 Bft) 93,62 %
07.12.2020 13:04 3,3 C 2,8 C 3,4 C 99 % 999,2 hPa 0,0 l/m 0 min 2 min 25 W/m 12,9 km/h (3 Bft) 93,62 %
07.12.2020 13:06 3,3 C 2,8 C 3,4 C 99 % 999,1 hPa 0,2 l/m 0 min 2 min 26 W/m 6,4 km/h (2 Bft) 89,36 %
07.12.2020 13:08 3,3 C 2,8 C 3,4 C 99 % 999,2 hPa 0,0 l/m 0 min 2 min 28 W/m 12,9 km/h (3 Bft) 91,49 %
07.12.2020 13:10 3,3 C 2,8 C 3,4 C 99 % 999,2 hPa 0,0 l/m 0 min 2 min 30 W/m 12,9 km/h (3 Bft) 93,48 %
07.12.2020 13:12 3,4 C 2,8 C 3,4 C 99 % 999,3 hPa 0,0 l/m 0 min 2 min 30 W/m 22,5 km/h (4 Bft) 93,62 %
07.12.2020 13:14 3,3 C 2,8 C 3,4 C 99 % 999,3 hPa 0,0 l/m 0 min 2 min 32 W/m 6,4 km/h (2 Bft) 93,62 %
07.12.2020 13:16 3,4 C 2,8 C 3,4 C 99 % 999,3 hPa 0,0 l/m 0 min 2 min 32 W/m 16,1 km/h (3 Bft) 93,62 %
07.12.2020 13:18 3,4 C 2,8 C 3,4 C 99 % 999,3 hPa 0,0 l/m 0 min 2 min 33 W/m 19,3 km/h (3 Bft) 93,62 %
07.12.2020 13:20 3,4 C 2,8 C 3,4 C 99 % 999,3 hPa 0,0 l/m 0 min 2 min 33 W/m 19,3 km/h (3 Bft) 93,62 %
07.12.2020 13:22 3,4 C 2,8 C 3,4 C 99 % 999,3 hPa 0,0 l/m 0 min 2 min 33 W/m 12,9 km/h (3 Bft) 93,48 %
07.12.2020 13:24 3,4 C 2,8 C 3,4 C 99 % 999,3 hPa 0,0 l/m 0 min 2 min 32 W/m 16,1 km/h (3 Bft) 93,62 %
07.12.2020 13:26 3,4 C 2,8 C 3,4 C 99 % 999,3 hPa 0,0 l/m 0 min 2 min 32 W/m 16,1 km/h (3 Bft) 91,49 %
07.12.2020 13:28 3,4 C 2,8 C 3,4 C 99 % 999,3 hPa 0,0 l/m 0 min 2 min 32 W/m 12,9 km/h (3 Bft) 93,62 %
07.12.2020 13:30 3,4 C 2,8 C 3,4 C 99 % 999,3 hPa 0,0 l/m 0 min 2 min 32 W/m 16,1 km/h (3 Bft) 91,49 %
07.12.2020 13:32 3,4 C 2,8 C 3,4 C 99 % 999,3 hPa 0,0 l/m 0 min 2 min 32 W/m 16,1 km/h (3 Bft) 93,62 %
07.12.2020 13:34 3,4 C 2,8 C 3,4 C 99 % 999,3 hPa 0,2 l/m 0 min 2 min 31 W/m 16,1 km/h (3 Bft) 95,65 %
07.12.2020 13:36 3,4 C 2,8 C 3,4 C 99 % 999,3 hPa 0,0 l/m 0 min 2 min 29 W/m 12,9 km/h (3 Bft) 97,87 %
07.12.2020 13:38 3,4 C 2,8 C 3,4 C 99 % 999,3 hPa 0,0 l/m 0 min 2 min 29 W/m 16,1 km/h (3 Bft) 97,87 %
07.12.2020 13:40 3,4 C 2,8 C 3,4 C 99 % 999,3 hPa 0,0 l/m 0 min 2 min 30 W/m 12,9 km/h (3 Bft) 93,62 %
07.12.2020 13:42 3,4 C 2,8 C 3,4 C 99 % 999,3 hPa 0,0 l/m 0 min 2 min 32 W/m 19,3 km/h (3 Bft) 97,87 %
07.12.2020 13:44 3,4 C 2,8 C 3,4 C 99 % 999,3 hPa 0,0 l/m 0 min 2 min 32 W/m 19,3 km/h (3 Bft) 97,87 %
07.12.2020 13:46 3,4 C 2,8 C 3,4 C 99 % 999,3 hPa 0,0 l/m 0 min 2 min 32 W/m 19,3 km/h (3 Bft) 95,74 %
07.12.2020 13:48 3,4 C 2,8 C 3,4 C 99 % 999,3 hPa 0,0 l/m 0 min 2 min 34 W/m 16,1 km/h (3 Bft) 97,30 %
07.12.2020 13:50 3,4 C 2,8 C 3,4 C 99 % 999,3 hPa 0,2 l/m 0 min 2 min 36 W/m 16,1 km/h (3 Bft) 95,74 %
07.12.2020 13:52 3,4 C 2,8 C 3,4 C 99 % 999,3 hPa 0,0 l/m 0 min 2 min 39 W/m 9,7 km/h (2 Bft) 97,87 %
07.12.2020 13:54 3,4 C 2,8 C 3,4 C 99 % 999,3 hPa 0,0 l/m 0 min 2 min 40 W/m 12,9 km/h (3 Bft) 98,18 %
07.12.2020 13:56 3,5 C 2,8 C 3,4 C 99 % 999,3 hPa 0,0 l/m 0 min 2 min 42 W/m 12,9 km/h (3 Bft) 95,65 %
07.12.2020 13:58 3,5 C 2,8 C 3,4 C 99 % 999,3 hPa 0,0 l/m 0 min 2 min 42 W/m 16,1 km/h (3 Bft) 98,00 %
07.12.2020 14:00 3,5 C 2,8 C 3,4 C 99 % 999,3 hPa 0,0 l/m 0 min 2 min 44 W/m 12,9 km/h (3 Bft) 100,00 %
07.12.2020 14:02 3,5 C 2,8 C 3,4 C 99 % 999,3 hPa 0,0 l/m 0 min 2 min 44 W/m 16,1 km/h (3 Bft) 97,87 %
07.12.2020 14:04 3,5 C 2,8 C 3,4 C 99 % 999,3 hPa 0,0 l/m 0 min 2 min 45 W/m 12,9 km/h (3 Bft) 95,74 %
07.12.2020 14:06 3,5 C 2,8 C 3,4 C 99 % 999,3 hPa 0,0 l/m 0 min 2 min 47 W/m 16,1 km/h (3 Bft) 97,83 %
07.12.2020 14:08 3,5 C 2,8 C 3,4 C 99 % 999,3 hPa 0,0 l/m 0 min 2 min 47 W/m 6,4 km/h (2 Bft) 97,87 %
07.12.2020 14:10 3,6 C 3,3 C 3,4 C 99 % 999,3 hPa 0,0 l/m 0 min 2 min 49 W/m 6,4 km/h (2 Bft) 97,87 %
07.12.2020 14:12 3,6 C 3,3 C 3,9 C 99 % 999,3 hPa 0,0 l/m 0 min 2 min 51 W/m 6,4 km/h (2 Bft) 97,87 %
07.12.2020 14:14 3,6 C 3,3 C 3,9 C 99 % 999,3 hPa 0,0 l/m 0 min 2 min 53 W/m 12,9 km/h (3 Bft) 95,74 %
07.12.2020 14:16 3,6 C 3,3 C 3,9 C 99 % 999,4 hPa 0,0 l/m 0 min 0 min 54 W/m 12,9 km/h (3 Bft) 95,65 %
07.12.2020 14:18 3,6 C 3,3 C 3,9 C 99 % 999,3 hPa 0,0 l/m 0 min 0 min 53 W/m 16,1 km/h (3 Bft) 97,87 %
07.12.2020 14:20 3,7 C 3,3 C 3,9 C 99 % 999,3 hPa 0,0 l/m 0 min 0 min 52 W/m 12,9 km/h (3 Bft) 97,87 %
07.12.2020 14:22 3,7 C 3,3 C 3,9 C 99 % 999,4 hPa 0,0 l/m 0 min 0 min 49 W/m 12,9 km/h (3 Bft) 97,87 %
07.12.2020 14:24 3,7 C 3,3 C 3,9 C 99 % 999,4 hPa 0,0 l/m 0 min 0 min 48 W/m 6,4 km/h (2 Bft) 97,87 %
07.12.2020 14:26 3,8 C 3,3 C 3,9 C 99 % 999,4 hPa 0,0 l/m 0 min 0 min 48 W/m 6,4 km/h (2 Bft) 97,87 %
07.12.2020 14:28 3,8 C 3,3 C 3,9 C 99 % 999,3 hPa 0,0 l/m 0 min 2 min 49 W/m 6,4 km/h (2 Bft) 97,83 %
07.12.2020 14:30 3,8 C 3,3 C 3,9 C 99 % 999,3 hPa 0,0 l/m 0 min 0 min 49 W/m 3,2 km/h (1 Bft) 97,87 %
07.12.2020 14:32 3,8 C 3,3 C 3,9 C 99 % 999,3 hPa 0,0 l/m 0 min 0 min 50 W/m 3,2 km/h (1 Bft) 97,87 %
07.12.2020 14:34 3,9 C 3,3 C 3,9 C 99 % 999,3 hPa 0,0 l/m 0 min 0 min 49 W/m 3,2 km/h (1 Bft) 97,87 %
07.12.2020 14:36 3,9 C 3,3 C 3,9 C 99 % 999,4 hPa 0,0 l/m 0 min 0 min 54 W/m 6,4 km/h (2 Bft) 97,87 %
07.12.2020 14:38 3,9 C 3,3 C 3,9 C 99 % 999,4 hPa 0,0 l/m 0 min 0 min 54 W/m 3,2 km/h (1 Bft) 97,87 %
07.12.2020 14:40 3,9 C 3,3 C 3,9 C 99 % 999,4 hPa 0,0 l/m 0 min 0 min 53 W/m 6,4 km/h (2 Bft) 97,83 %
07.12.2020 14:42 4,0 C 3,3 C 3,9 C 99 % 999,5 hPa 0,0 l/m 0 min 0 min 50 W/m 12,9 km/h (3 Bft) 97,87 %
07.12.2020 14:44 4,0 C 3,3 C 3,9 C 99 % 999,4 hPa 0,0 l/m 0 min 0 min 49 W/m 6,4 km/h (2 Bft) 95,74 %
07.12.2020 14:46 4,0 C 3,3 C 3,9 C 99 % 999,5 hPa 0,0 l/m 0 min 0 min 49 W/m 6,4 km/h (2 Bft) 95,74 %
07.12.2020 14:48 4,0 C 3,3 C 3,9 C 99 % 999,6 hPa 0,0 l/m 0 min 0 min 46 W/m 12,9 km/h (3 Bft) 95,74 %
07.12.2020 14:50 4,0 C 3,3 C 3,9 C 99 % 999,5 hPa 0,0 l/m 0 min 0 min 42 W/m 12,9 km/h (3 Bft) 97,87 %
07.12.2020 14:52 4,1 C 3,3 C 3,9 C 99 % 999,5 hPa 0,0 l/m 0 min 2 min 42 W/m 3,2 km/h (1 Bft) 97,83 %
07.12.2020 14:54 4,1 C 3,3 C 3,9 C 99 % 999,5 hPa 0,0 l/m 0 min 0 min 42 W/m 16,1 km/h (3 Bft) 95,74 %
07.12.2020 14:56 4,1 C 3,3 C 3,9 C 99 % 999,6 hPa 0,0 l/m 0 min 2 min 40 W/m 12,9 km/h (3 Bft) 97,87 %
07.12.2020 14:58 4,1 C 3,3 C 3,9 C 99 % 999,6 hPa 0,0 l/m 0 min 0 min 39 W/m 6,4 km/h (2 Bft) 97,87 %
07.12.2020 15:00 4,1 C 3,3 C 3,9 C 99 % 999,6 hPa 0,0 l/m 0 min 2 min 38 W/m 6,4 km/h (2 Bft) 97,87 %
07.12.2020 15:02 4,1 C 3,3 C 3,9 C 99 % 999,6 hPa 0,0 l/m 0 min 0 min 35 W/m 3,2 km/h (1 Bft) 97,83 %
07.12.2020 15:04 4,1 C 3,9 C 3,9 C 99 % 999,6 hPa 0,0 l/m 0 min 0 min 33 W/m 3,2 km/h (1 Bft) 97,87 %
07.12.2020 15:06 4,1 C 3,9 C 3,9 C 99 % 999,6 hPa 0,0 l/m 0 min 0 min 32 W/m 6,4 km/h (2 Bft) 97,87 %
07.12.2020 15:08 4,2 C 3,3 C 3,9 C 99 % 999,6 hPa 0,0 l/m 0 min 2 min 30 W/m 6,4 km/h (2 Bft) 95,74 %
07.12.2020 15:10 4,2 C 3,9 C 3,9 C 99 % 999,7 hPa 0,0 l/m 0 min 0 min 29 W/m 3,2 km/h (1 Bft) 95,74 %
07.12.2020 15:12 4,2 C 3,9 C 3,9 C 99 % 999,7 hPa 0,0 l/m 0 min 2 min 28 W/m 3,2 km/h (1 Bft) 97,87 %
07.12.2020 15:14 4,3 C 3,9 C 3,9 C 99 % 999,7 hPa 0,0 l/m 0 min 0 min 26 W/m 3,2 km/h (1 Bft) 97,83 %
07.12.2020 15:16 4,3 C 3,9 C 3,9 C 99 % 999,7 hPa 0,0 l/m 0 min 0 min 26 W/m 6,4 km/h (2 Bft) 97,87 %
07.12.2020 15:18 4,3 C 3,9 C 3,9 C 99 % 999,7 hPa 0,0 l/m 0 min 0 min 25 W/m 12,9 km/h (3 Bft) 95,74 %
07.12.2020 15:20 4,3 C 3,9 C 3,9 C 99 % 999,8 hPa 0,0 l/m 0 min 0 min 23 W/m 3,2 km/h (1 Bft) 95,74 %
07.12.2020 15:22 4,3 C 3,9 C 3,9 C 99 % 999,8 hPa 0,0 l/m 0 min 0 min 22 W/m 6,4 km/h (2 Bft) 97,87 %
07.12.2020 15:24 4,3 C 3,9 C 3,9 C 99 % 999,8 hPa 0,0 l/m 0 min 0 min 20 W/m 3,2 km/h (1 Bft) 100,00 %
07.12.2020 15:26 4,3 C 3,9 C 3,9 C 99 % 999,8 hPa 0,0 l/m 0 min 2 min 18 W/m 12,9 km/h (3 Bft) 95,65 %
07.12.2020 15:28 4,3 C 3,3 C 3,9 C 99 % 999,8 hPa 0,0 l/m 0 min 2 min 18 W/m 6,4 km/h (2 Bft) 95,74 %
07.12.2020 15:30 4,3 C 3,3 C 3,9 C 99 % 999,8 hPa 0,0 l/m 0 min 2 min 18 W/m 6,4 km/h (2 Bft) 95,74 %
07.12.2020 15:32 4,3 C 3,3 C 3,9 C 99 % 999,8 hPa 0,0 l/m 0 min 2 min 18 W/m 0,0 km/h (0 Bft) 95,74 %
07.12.2020 15:34 4,3 C 3,3 C 3,9 C 99 % 999,9 hPa 0,0 l/m 0 min 2 min 18 W/m 3,2 km/h (1 Bft) 93,62 %
07.12.2020 15:36 4,3 C 3,3 C 3,9 C 99 % 999,9 hPa 0,2 l/m 0 min 2 min 18 W/m 6,4 km/h (2 Bft) 95,74 %
07.12.2020 15:38 4,3 C 3,3 C 3,9 C 99 % 999,9 hPa 0,0 l/m 0 min 2 min 18 W/m 6,4 km/h (2 Bft) 93,48 %
07.12.2020 15:40 4,3 C 3,3 C 3,9 C 99 % 999,9 hPa 0,0 l/m 0 min 0 min 19 W/m 12,9 km/h (3 Bft) 91,49 %
07.12.2020 15:42 4,3 C 3,3 C 3,9 C 99 % 999,9 hPa 0,0 l/m 0 min 0 min 19 W/m 6,4 km/h (2 Bft) 93,62 %
07.12.2020 15:44 4,3 C 3,3 C 3,9 C 99 % 999,9 hPa 0,0 l/m 0 min 0 min 19 W/m 6,4 km/h (2 Bft) 91,49 %
07.12.2020 15:46 4,3 C 3,3 C 3,9 C 99 % 1000,0 hPa 0,0 l/m 0 min 2 min 18 W/m 3,2 km/h (1 Bft) 93,62 %
07.12.2020 15:48 4,3 C 3,3 C 3,9 C 99 % 1000,0 hPa 0,0 l/m 0 min 2 min 18 W/m 12,9 km/h (3 Bft) 91,49 %
07.12.2020 15:50 4,3 C 3,3 C 3,9 C 99 % 1000,0 hPa 0,0 l/m 0 min 0 min 16 W/m 6,4 km/h (2 Bft) 95,65 %
07.12.2020 15:52 4,3 C 3,3 C 3,9 C 99 % 1000,0 hPa 0,0 l/m 0 min 0 min 16 W/m 3,2 km/h (1 Bft) 91,49 %
07.12.2020 15:54 4,3 C 3,3 C 3,9 C 99 % 1000,0 hPa 0,0 l/m 0 min 0 min 15 W/m 3,2 km/h (1 Bft) 93,62 %
07.12.2020 15:56 4,3 C 3,3 C 3,9 C 99 % 1000,1 hPa 0,0 l/m 0 min 0 min 14 W/m 6,4 km/h (2 Bft) 93,62 %
07.12.2020 15:58 4,3 C 3,3 C 3,9 C 99 % 1000,1 hPa 0,0 l/m 0 min 2 min 13 W/m 6,4 km/h (2 Bft) 93,62 %
07.12.2020 16:00 4,3 C 3,3 C 3,9 C 99 % 1000,1 hPa 0,0 l/m 0 min 2 min 12 W/m 0,0 km/h (0 Bft) 91,49 %
07.12.2020 16:02 4,3 C 3,3 C 3,9 C 99 % 1000,1 hPa 0,0 l/m 0 min 2 min 11 W/m 0,0 km/h (0 Bft) 93,48 %
07.12.2020 16:04 4,3 C 3,3 C 3,9 C 99 % 1000,2 hPa 0,0 l/m 0 min 2 min 11 W/m 0,0 km/h (0 Bft) 95,74 %
07.12.2020 16:06 4,3 C 3,3 C 3,9 C 99 % 1000,2 hPa 0,0 l/m 0 min 0 min 11 W/m 0,0 km/h (0 Bft) 91,49 %
07.12.2020 16:08 4,3 C 3,3 C 3,9 C 99 % 1000,1 hPa 0,0 l/m 0 min 2 min 11 W/m 0,0 km/h (0 Bft) 93,62 %
07.12.2020 16:10 4,3 C 3,3 C 3,9 C 99 % 1000,2 hPa 0,0 l/m 0 min 0 min 9 W/m 0,0 km/h (0 Bft) 95,74 %
07.12.2020 16:12 4,3 C 3,3 C 3,9 C 99 % 1000,2 hPa 0,0 l/m 0 min 0 min 9 W/m 0,0 km/h (0 Bft) 95,65 %
07.12.2020 16:14 4,3 C 3,3 C 3,9 C 99 % 1000,2 hPa 0,0 l/m 0 min 0 min 8 W/m 0,0 km/h (0 Bft) 95,74 %
07.12.2020 16:16 4,3 C 3,3 C 3,9 C 99 % 1000,2 hPa 0,0 l/m 0 min 0 min 7 W/m 0,0 km/h (0 Bft) 95,74 %
07.12.2020 16:18 4,3 C 3,3 C 3,9 C 99 % 1000,3 hPa 0,0 l/m 0 min 0 min 8 W/m 0,0 km/h (0 Bft) 97,87 %
07.12.2020 16:20 4,3 C 3,3 C 3,9 C 99 % 1000,2 hPa 0,0 l/m 0 min 0 min 9 W/m 0,0 km/h (0 Bft) 95,74 %
07.12.2020 16:22 4,3 C 3,3 C 3,9 C 99 % 1000,2 hPa 0,0 l/m 0 min 0 min 8 W/m 0,0 km/h (0 Bft) 93,62 %
07.12.2020 16:24 4,3 C 3,3 C 3,9 C 99 % 1000,2 hPa 0,0 l/m 0 min 0 min 7 W/m 0,0 km/h (0 Bft) 95,65 %
07.12.2020 16:26 4,3 C 3,3 C 3,9 C 99 % 1000,2 hPa 0,0 l/m 0 min 0 min 6 W/m 0,0 km/h (0 Bft) 97,87 %
07.12.2020 16:28 4,3 C 3,3 C 3,9 C 99 % 1000,2 hPa 0,0 l/m 0 min 0 min 1 W/m 0,0 km/h (0 Bft) 97,87 %
07.12.2020 16:30 4,3 C 3,3 C 3,9 C 99 % 1000,2 hPa 0,0 l/m 0 min 0 min 0 W/m 0,0 km/h (0 Bft) 95,74 %
07.12.2020 16:32 4,3 C 3,3 C 3,9 C 99 % 1000,2 hPa 0,0 l/m 0 min 0 min 0 W/m 0,0 km/h (0 Bft) 93,62 %
07.12.2020 16:34 4,3 C 3,3 C 3,9 C 99 % 1000,2 hPa 0,0 l/m 0 min 0 min 0 W/m 0,0 km/h (0 Bft) 95,74 %
07.12.2020 16:36 4,3 C 3,3 C 3,9 C 99 % 1000,2 hPa 0,0 l/m 0 min 0 min 0 W/m 0,0 km/h (0 Bft) 97,83 %
07.12.2020 16:38 4,3 C 3,3 C 3,9 C 99 % 1000,2 hPa 0,0 l/m 0 min 0 min 0 W/m 0,0 km/h (0 Bft) 97,87 %
07.12.2020 16:40 4,3 C 3,3 C 3,9 C 98 % 1000,2 hPa 0,0 l/m 0 min 0 min 0 W/m 0,0 km/h (0 Bft) 97,87 %
07.12.2020 16:42 4,3 C 3,3 C 3,9 C 98 % 1000,3 hPa 0,0 l/m 0 min 0 min 0 W/m 0,0 km/h (0 Bft) 97,87 %
07.12.2020 16:44 4,3 C 3,3 C 3,9 C 98 % 1000,3 hPa 0,0 l/m 0 min 0 min 0 W/m 0,0 km/h (0 Bft) 95,74 %
07.12.2020 16:46 4,3 C 3,3 C 3,9 C 98 % 1000,2 hPa 0,0 l/m 0 min 0 min 0 W/m 0,0 km/h (0 Bft) 97,87 %
07.12.2020 16:48 4,3 C 3,3 C 3,9 C 98 % 1000,2 hPa 0,0 l/m 0 min 0 min 0 W/m 0,0 km/h (0 Bft) 95,65 %
07.12.2020 16:50 4,3 C 3,3 C 3,9 C 98 % 1000,3 hPa 0,0 l/m 0 min 0 min 0 W/m 0,0 km/h (0 Bft) 97,87 %
07.12.2020 16:52 4,3 C 3,3 C 3,9 C 98 % 1000,3 hPa 0,0 l/m 0 min 0 min 0 W/m 0,0 km/h (0 Bft) 97,87 %
07.12.2020 16:54 4,3 C 3,3 C 3,9 C 98 % 1000,3 hPa 0,0 l/m 0 min 0 min 0 W/m 0,0 km/h (0 Bft) 97,87 %
07.12.2020 16:56 4,3 C 3,3 C 3,9 C 98 % 1000,4 hPa 0,0 l/m 0 min 0 min 0 W/m 0,0 km/h (0 Bft) 97,87 %
07.12.2020 16:58 4,3 C 3,3 C 3,9 C 98 % 1000,4 hPa 0,0 l/m 0 min 0 min 0 W/m 0,0 km/h (0 Bft) 100,00 %
07.12.2020 17:00 4,2 C 3,3 C 3,9 C 98 % 1000,4 hPa 0,0 l/m 0 min 0 min 0 W/m 0,0 km/h (0 Bft) 100,00 %
07.12.2020 17:02 4,2 C 3,3 C 3,9 C 98 % 1000,4 hPa 0,0 l/m 0 min 0 min 0 W/m 0,0 km/h (0 Bft) 97,87 %
07.12.2020 17:04 4,2 C 3,3 C 3,9 C 98 % 1000,4 hPa 0,0 l/m 0 min 0 min 0 W/m 0,0 km/h (0 Bft) 100,00 %
07.12.2020 17:06 4,1 C 3,3 C 3,9 C 98 % 1000,4 hPa 0,0 l/m 0 min 0 min 0 W/m 0,0 km/h (0 Bft) 97,87 %
07.12.2020 17:08 4,1 C 3,3 C 3,9 C 98 % 1000,5 hPa 0,0 l/m 0 min 0 min 0 W/m 0,0 km/h (0 Bft) 100,00 %
07.12.2020 17:10 4,1 C 3,3 C 3,9 C 98 % 1000,4 hPa 0,0 l/m 0 min 0 min 0 W/m 0,0 km/h (0 Bft) 100,00 %
07.12.2020 17:12 4,1 C 3,3 C 3,9 C 98 % 1000,4 hPa 0,0 l/m 0 min 0 min 0 W/m 0,0 km/h (0 Bft) 100,00 %
07.12.2020 17:14 4,1 C 3,3 C 3,9 C 98 % 1000,5 hPa 0,0 l/m 0 min 0 min 0 W/m 0,0 km/h (0 Bft) 100,00 %
07.12.2020 17:16 4,1 C 3,3 C 3,9 C 98 % 1000,5 hPa 0,0 l/m 0 min 0 min 0 W/m 0,0 km/h (0 Bft) 100,00 %
07.12.2020 17:18 4,1 C 3,3 C 3,9 C 98 % 1000,5 hPa 0,0 l/m 0 min 0 min 0 W/m 0,0 km/h (0 Bft) 100,00 %
07.12.2020 17:20 4,1 C 3,3 C 3,9 C 98 % 1000,6 hPa 0,0 l/m 0 min 0 min 0 W/m 0,0 km/h (0 Bft) 100,00 %
07.12.2020 17:22 4,1 C 3,3 C 3,9 C 98 % 1000,6 hPa 0,0 l/m 0 min 0 min 0 W/m 0,0 km/h (0 Bft) 97,83 %
07.12.2020 17:24 4,1 C 3,3 C 3,9 C 98 % 1000,6 hPa 0,0 l/m 0 min 0 min 0 W/m 0,0 km/h (0 Bft) 100,00 %
07.12.2020 17:26 4,0 C 3,3 C 3,9 C 98 % 1000,6 hPa 0,0 l/m 0 min 0 min 0 W/m 0,0 km/h (0 Bft) 100,00 %
07.12.2020 17:28 4,0 C 3,3 C 3,9 C 98 % 1000,5 hPa 0,0 l/m 0 min 0 min 0 W/m 0,0 km/h (0 Bft) 97,87 %
07.12.2020 17:30 4,0 C 3,3 C 3,9 C 98 % 1000,6 hPa 0,0 l/m 0 min 0 min 0 W/m 0,0 km/h (0 Bft) 97,87 %
07.12.2020 17:32 4,0 C 3,3 C 3,9 C 98 % 1000,5 hPa 0,0 l/m 0 min 0 min 0 W/m 0,0 km/h (0 Bft) 97,87 %
07.12.2020 17:34 4,0 C 3,3 C 3,9 C 98 % 1000,6 hPa 0,0 l/m 0 min 0 min 0 W/m 0,0 km/h (0 Bft) 100,00 %
07.12.2020 17:36 4,0 C 3,3 C 3,9 C 98 % 1000,6 hPa 0,0 l/m 0 min 0 min 0 W/m 0,0 km/h (0 Bft) 100,00 %
07.12.2020 17:38 4,0 C 3,3 C 3,9 C 98 % 1000,6 hPa 0,0 l/m 0 min 0 min 0 W/m 0,0 km/h (0 Bft) 100,00 %
07.12.2020 17:40 4,0 C 3,3 C 3,9 C 98 % 1000,7 hPa 0,0 l/m 0 min 0 min 0 W/m 0,0 km/h (0 Bft) 100,00 %
07.12.2020 17:42 4,0 C 3,3 C 3,9 C 98 % 1000,7 hPa 0,0 l/m 0 min 0 min 0 W/m 0,0 km/h (0 Bft) 100,00 %
07.12.2020 17:44 4,0 C 3,3 C 3,9 C 98 % 1000,7 hPa 0,0 l/m 0 min 0 min 0 W/m 0,0 km/h (0 Bft) 97,87 %
07.12.2020 17:46 4,0 C 3,3 C 3,9 C 98 % 1000,7 hPa 0,0 l/m 0 min 0 min 0 W/m 0,0 km/h (0 Bft) 95,65 %
07.12.2020 17:48 4,0 C 3,3 C 3,9 C 98 % 1000,7 hPa 0,0 l/m 0 min 0 min 0 W/m 3,2 km/h (1 Bft) 100,00 %
07.12.2020 17:50 4,0 C 3,3 C 3,9 C 98 % 1000,7 hPa 0,0 l/m 0 min 0 min 0 W/m 0,0 km/h (0 Bft) 97,87 %
07.12.2020 17:52 4,0 C 3,3 C 3,9 C 98 % 1000,7 hPa 0,0 l/m 0 min 0 min 0 W/m 0,0 km/h (0 Bft) 100,00 %
07.12.2020 17:54 4,0 C 3,3 C 3,9 C 98 % 1000,7 hPa 0,0 l/m 0 min 0 min 0 W/m 0,0 km/h (0 Bft) 97,87 %
07.12.2020 17:56 4,0 C 3,3 C 3,9 C 98 % 1000,8 hPa 0,0 l/m 0 min 0 min 0 W/m 0,0 km/h (0 Bft) 97,87 %
07.12.2020 17:58 4,0 C 3,3 C 3,9 C 98 % 1000,8 hPa 0,0 l/m 0 min 0 min 0 W/m 3,2 km/h (1 Bft) 97,83 %
07.12.2020 18:00 4,0 C 3,3 C 3,9 C 98 % 1000,8 hPa 0,0 l/m 0 min 0 min 0 W/m 3,2 km/h (1 Bft) 95,74 %
07.12.2020 18:02 4,0 C 3,3 C 3,9 C 98 % 1000,8 hPa 0,0 l/m 0 min 0 min 0 W/m 3,2 km/h (1 Bft) 96,23 %
07.12.2020 18:04 4,0 C 3,3 C 3,9 C 98 % 1000,8 hPa 0,0 l/m 0 min 0 min 0 W/m 3,2 km/h (1 Bft) 97,87 %
07.12.2020 18:08 4,0 C 3,3 C 3,9 C 98 % 1000,8 hPa 0,0 l/m 0 min 0 min 0 W/m 0,0 km/h (0 Bft) 96,91 %
07.12.2020 18:10 4,0 C 3,3 C 3,9 C 98 % 1000,8 hPa 0,0 l/m 0 min 0 min 0 W/m 0,0 km/h (0 Bft) 97,87 %
07.12.2020 18:12 4,0 C 3,3 C 3,9 C 98 % 1000,9 hPa 0,0 l/m 0 min 0 min 0 W/m 0,0 km/h (0 Bft) 97,83 %
07.12.2020 18:14 4,1 C 3,3 C 3,9 C 98 % 1000,8 hPa 0,0 l/m 0 min 0 min 0 W/m 0,0 km/h (0 Bft) 95,74 %
07.12.2020 18:16 4,1 C 3,3 C 3,9 C 98 % 1000,8 hPa 0,0 l/m 0 min 0 min 0 W/m 0,0 km/h (0 Bft) 97,87 %
07.12.2020 18:18 4,1 C 3,3 C 3,9 C 98 % 1000,9 hPa 0,0 l/m 0 min 0 min 0 W/m 3,2 km/h (1 Bft) 93,62 %
07.12.2020 18:20 4,1 C 3,3 C 3,9 C 98 % 1000,9 hPa 0,0 l/m 0 min 0 min 0 W/m 0,0 km/h (0 Bft) 97,30 %
07.12.2020 18:22 4,1 C 3,3 C 3,9 C 98 % 1000,9 hPa 0,0 l/m 0 min 0 min 0 W/m 0,0 km/h (0 Bft) 97,87 %
07.12.2020 18:24 4,1 C 3,3 C 3,9 C 98 % 1000,9 hPa 0,0 l/m 0 min 0 min 0 W/m 0,0 km/h (0 Bft) 95,74 %
07.12.2020 18:26 4,1 C 3,3 C 3,9 C 98 % 1000,9 hPa 0,0 l/m 0 min 0 min 0 W/m 0,0 km/h (0 Bft) 95,74 %
07.12.2020 18:28 4,0 C 3,3 C 3,9 C 98 % 1000,9 hPa 0,0 l/m 0 min 0 min 0 W/m 0,0 km/h (0 Bft) 93,62 %
07.12.2020 18:30 4,0 C 3,3 C 3,9 C 98 % 1000,9 hPa 0,0 l/m 0 min 0 min 0 W/m 0,0 km/h (0 Bft) 95,74 %
07.12.2020 18:32 4,0 C 3,3 C 3,4 C 98 % 1000,9 hPa 0,0 l/m 0 min 0 min 0 W/m 0,0 km/h (0 Bft) 95,65 %
07.12.2020 18:34 4,0 C 3,3 C 3,4 C 98 % 1001,0 hPa 0,0 l/m 0 min 0 min 0 W/m 0,0 km/h (0 Bft) 95,74 %
07.12.2020 18:36 4,0 C 3,3 C 3,4 C 98 % 1001,0 hPa 0,0 l/m 0 min 0 min 0 W/m 0,0 km/h (0 Bft) 95,74 %
07.12.2020 18:38 4,0 C 3,3 C 3,4 C 98 % 1001,0 hPa 0,0 l/m 0 min 0 min 0 W/m 3,2 km/h (1 Bft) 93,62 %
07.12.2020 18:40 4,0 C 3,3 C 3,4 C 98 % 1001,0 hPa 0,0 l/m 0 min 0 min 0 W/m 3,2 km/h (1 Bft) 97,87 %
07.12.2020 18:42 4,0 C 3,3 C 3,4 C 98 % 1001,0 hPa 0,0 l/m 0 min 0 min 0 W/m 6,4 km/h (2 Bft) 95,74 %
07.12.2020 18:44 4,0 C 3,3 C 3,4 C 98 % 1001,1 hPa 0,0 l/m 0 min 0 min 0 W/m 6,4 km/h (2 Bft) 97,83 %
07.12.2020 18:46 4,0 C 3,3 C 3,4 C 98 % 1001,0 hPa 0,0 l/m 0 min 0 min 0 W/m 3,2 km/h (1 Bft) 95,74 %
07.12.2020 18:48 3,9 C 2,8 C 3,4 C 98 % 1001,1 hPa 0,0 l/m 0 min 0 min 0 W/m 0,0 km/h (0 Bft) 93,62 %
07.12.2020 18:50 3,9 C 2,8 C 3,4 C 98 % 1001,2 hPa 0,0 l/m 0 min 0 min 0 W/m 3,2 km/h (1 Bft) 95,74 %
07.12.2020 18:52 3,9 C 2,8 C 3,4 C 98 % 1001,2 hPa 0,0 l/m 0 min 0 min 0 W/m 0,0 km/h (0 Bft) 97,87 %
07.12.2020 18:54 3,9 C 2,8 C 3,4 C 98 % 1001,2 hPa 0,0 l/m 0 min 0 min 0 W/m 3,2 km/h (1 Bft) 97,87 %
07.12.2020 18:56 3,9 C 2,8 C 3,4 C 98 % 1001,3 hPa 0,0 l/m 0 min 0 min 0 W/m 3,2 km/h (1 Bft) 95,65 %
07.12.2020 18:58 3,8 C 2,8 C 3,4 C 98 % 1001,3 hPa 0,0 l/m 0 min 0 min 0 W/m 0,0 km/h (0 Bft) 95,74 %
07.12.2020 19:00 3,8 C 2,8 C 3,4 C 98 % 1001,3 hPa 0,0 l/m 0 min 0 min 0 W/m 0,0 km/h (0 Bft) 95,74 %
07.12.2020 19:02 3,8 C 2,8 C 3,4 C 98 % 1001,3 hPa 0,0 l/m 0 min 0 min 0 W/m 0,0 km/h (0 Bft) 97,87 %
07.12.2020 19:04 3,7 C 2,8 C 3,4 C 98 % 1001,3 hPa 0,0 l/m 0 min 0 min 0 W/m 3,2 km/h (1 Bft) 95,74 %
07.12.2020 19:06 3,7 C 2,8 C 3,4 C 98 % 1001,3 hPa 0,0 l/m 0 min 0 min 0 W/m 0,0 km/h (0 Bft) 95,65 %
07.12.2020 19:08 3,6 C 2,8 C 3,4 C 98 % 1001,2 hPa 0,0 l/m 0 min 0 min 0 W/m 3,2 km/h (1 Bft) 97,87 %
07.12.2020 19:10 3,6 C 2,8 C 2,8 C 98 % 1001,3 hPa 0,0 l/m 0 min 0 min 0 W/m 3,2 km/h (1 Bft) 97,87 %
07.12.2020 19:12 3,6 C 2,8 C 2,8 C 98 % 1001,2 hPa 0,0 l/m 0 min 0 min 0 W/m 6,4 km/h (2 Bft) 97,87 %
07.12.2020 19:14 3,5 C 2,8 C 2,8 C 98 % 1001,2 hPa 0,0 l/m 0 min 0 min 0 W/m 3,2 km/h (1 Bft) 95,74 %
07.12.2020 19:19 3,5 C 2,2 C 2,8 C 98 % 1001,2 hPa 0,0 l/m 0 min 0 min 0 W/m 3,2 km/h (1 Bft) 100,00 %
07.12.2020 19:20 3,5 C 2,2 C 2,8 C 98 % 1001,2 hPa 0,0 l/m 0 min 0 min 0 W/m 3,2 km/h (1 Bft) 100,00 %
07.12.2020 19:22 3,4 C 2,2 C 2,8 C 98 % 1001,2 hPa 0,0 l/m 0 min 0 min 0 W/m 3,2 km/h (1 Bft) 91,49 %
07.12.2020 19:24 3,4 C 2,2 C 2,8 C 98 % 1001,2 hPa 0,0 l/m 0 min 0 min 0 W/m 0,0 km/h (0 Bft) 100,00 %
07.12.2020 19:26 3,4 C 2,2 C 2,8 C 98 % 1001,2 hPa 0,0 l/m 0 min 0 min 0 W/m 6,4 km/h (2 Bft) 97,87 %
07.12.2020 19:28 3,4 C 2,2 C 2,8 C 98 % 1001,3 hPa 0,0 l/m 0 min 0 min 0 W/m 3,2 km/h (1 Bft) 100,00 %
07.12.2020 19:30 3,3 C 2,2 C 2,8 C 98 % 1001,3 hPa 0,0 l/m 0 min 0 min 0 W/m 16,1 km/h (3 Bft) 100,00 %
07.12.2020 19:32 3,3 C 2,2 C 2,8 C 98 % 1001,3 hPa 0,0 l/m 0 min 0 min 0 W/m 0,0 km/h (0 Bft) 97,87 %
07.12.2020 19:34 3,3 C 2,2 C 2,8 C 98 % 1001,3 hPa 0,0 l/m 0 min 0 min 0 W/m 0,0 km/h (0 Bft) 100,00 %
07.12.2020 19:36 3,3 C 2,2 C 2,8 C 98 % 1001,3 hPa 0,0 l/m 0 min 0 min 0 W/m 0,0 km/h (0 Bft) 100,00 %
07.12.2020 19:38 3,3 C 2,2 C 2,8 C 98 % 1001,3 hPa 0,0 l/m 0 min 0 min 0 W/m 0,0 km/h (0 Bft) 100,00 %
07.12.2020 19:40 3,2 C 2,2 C 2,8 C 98 % 1001,4 hPa 0,0 l/m 0 min 0 min 0 W/m 0,0 km/h (0 Bft) 100,00 %
07.12.2020 19:42 3,2 C 2,2 C 2,8 C 98 % 1001,4 hPa 0,0 l/m 0 min 0 min 0 W/m 3,2 km/h (1 Bft) 100,00 %
07.12.2020 19:44 3,1 C 2,2 C 2,8 C 98 % 1001,4 hPa 0,0 l/m 0 min 0 min 0 W/m 3,2 km/h (1 Bft) 97,87 %
07.12.2020 19:46 3,1 C 2,2 C 2,8 C 98 % 1001,4 hPa 0,0 l/m 0 min 0 min 0 W/m 0,0 km/h (0 Bft) 100,00 %
07.12.2020 19:48 3,1 C 2,2 C 2,8 C 98 % 1001,4 hPa 0,0 l/m 0 min 0 min 0 W/m 6,4 km/h (2 Bft) 100,00 %
07.12.2020 19:50 3,1 C 2,2 C 2,8 C 98 % 1001,4 hPa 0,0 l/m 0 min 0 min 0 W/m 6,4 km/h (2 Bft) 100,00 %
07.12.2020 19:52 3,0 C 2,2 C 2,8 C 98 % 1001,5 hPa 0,0 l/m 0 min 0 min 0 W/m 12,9 km/h (3 Bft) 100,00 %
07.12.2020 19:54 3,0 C 2,2 C 2,8 C 98 % 1001,5 hPa 0,0 l/m 0 min 0 min 0 W/m 6,4 km/h (2 Bft) 100,00 %
07.12.2020 19:56 3,0 C 2,2 C 2,8 C 98 % 1001,4 hPa 0,0 l/m 0 min 0 min 0 W/m 6,4 km/h (2 Bft) 100,00 %
07.12.2020 19:58 3,0 C 2,2 C 2,8 C 98 % 1001,5 hPa 0,0 l/m 0 min 0 min 0 W/m 3,2 km/h (1 Bft) 100,00 %
07.12.2020 20:00 3,0 C 2,2 C 2,8 C 98 % 1001,5 hPa 0,0 l/m 0 min 0 min 0 W/m 0,0 km/h (0 Bft) 100,00 %
07.12.2020 20:02 3,0 C 2,2 C 2,8 C 98 % 1001,5 hPa 0,0 l/m 0 min 0 min 0 W/m 3,2 km/h (1 Bft) 100,00 %
07.12.2020 20:04 3,0 C 2,2 C 2,8 C 98 % 1001,5 hPa 0,0 l/m 0 min 0 min 0 W/m 3,2 km/h (1 Bft) 100,00 %
07.12.2020 20:06 3,0 C 2,2 C 2,8 C 98 % 1001,5 hPa 0,0 l/m 0 min 0 min 0 W/m 0,0 km/h (0 Bft) 100,00 %
07.12.2020 20:08 3,0 C 2,2 C 2,8 C 98 % 1001,5 hPa 0,0 l/m 0 min 0 min 0 W/m 0,0 km/h (0 Bft) 97,87 %
07.12.2020 20:10 2,9 C 2,2 C 2,8 C 98 % 1001,6 hPa 0,0 l/m 0 min 0 min 0 W/m 0,0 km/h (0 Bft) 97,87 %
07.12.2020 20:12 2,9 C 2,2 C 2,8 C 98 % 1001,5 hPa 0,0 l/m 0 min 0 min 0 W/m 0,0 km/h (0 Bft) 95,74 %
07.12.2020 20:14 2,9 C 2,2 C 2,8 C 98 % 1001,5 hPa 0,0 l/m 0 min 0 min 0 W/m 0,0 km/h (0 Bft) 54,55 %
07.12.2020 20:16 2,9 C 2,2 C 2,8 C 98 % 1001,5 hPa 0,0 l/m 0 min 0 min 0 W/m 0,0 km/h (0 Bft) 100,00 %
07.12.2020 20:18 2,9 C 2,2 C 2,8 C 98 % 1001,6 hPa 0,0 l/m 0 min 0 min 0 W/m 0,0 km/h (0 Bft) 100,00 %
07.12.2020 20:20 2,9 C 2,2 C 2,8 C 98 % 1001,6 hPa 0,0 l/m 0 min 0 min 0 W/m 0,0 km/h (0 Bft) 100,00 %
07.12.2020 20:22 2,9 C 2,2 C 2,8 C 98 % 1001,6 hPa 0,0 l/m 0 min 0 min 0 W/m 0,0 km/h (0 Bft) 95,74 %
07.12.2020 20:24 2,9 C 2,2 C 2,8 C 98 % 1001,6 hPa 0,0 l/m 0 min 0 min 0 W/m 12,9 km/h (3 Bft) 97,87 %
07.12.2020 20:26 2,9 C 2,2 C 2,8 C 98 % 1001,7 hPa 0,0 l/m 0 min 0 min 0 W/m 3,2 km/h (1 Bft) 95,74 %
07.12.2020 20:28 2,9 C 2,2 C 2,8 C 98 % 1001,7 hPa 0,0 l/m 0 min 0 min 0 W/m 0,0 km/h (0 Bft) 97,83 %
07.12.2020 20:30 2,9 C 2,2 C 2,8 C 98 % 1001,7 hPa 0,0 l/m 0 min 0 min 0 W/m 0,0 km/h (0 Bft) 97,87 %
07.12.2020 20:32 2,9 C 2,2 C 2,8 C 98 % 1001,7 hPa 0,0 l/m 0 min 0 min 0 W/m 0,0 km/h (0 Bft) 95,74 %
07.12.2020 20:34 2,9 C 2,2 C 2,8 C 98 % 1001,7 hPa 0,0 l/m 0 min 0 min 0 W/m 0,0 km/h (0 Bft) 97,87 %
07.12.2020 20:36 2,9 C 2,2 C 2,8 C 98 % 1001,7 hPa 0,0 l/m 0 min 0 min 0 W/m 0,0 km/h (0 Bft) 97,87 %
07.12.2020 20:38 2,9 C 2,2 C 2,8 C 98 % 1001,7 hPa 0,0 l/m 0 min 0 min 0 W/m 3,2 km/h (1 Bft) 97,87 %
07.12.2020 20:40 2,9 C 2,2 C 2,8 C 98 % 1001,8 hPa 0,0 l/m 0 min 0 min 0 W/m 0,0 km/h (0 Bft) 97,83 %
07.12.2020 20:42 2,9 C 2,2 C 2,8 C 98 % 1001,7 hPa 0,0 l/m 0 min 0 min 0 W/m 0,0 km/h (0 Bft) 97,87 %
07.12.2020 20:44 2,9 C 2,2 C 2,8 C 98 % 1001,8 hPa 0,0 l/m 0 min 0 min 0 W/m 3,2 km/h (1 Bft) 97,87 %
07.12.2020 20:46 2,9 C 2,2 C 2,8 C 98 % 1001,8 hPa 0,0 l/m 0 min 0 min 0 W/m 0,0 km/h (0 Bft) 97,87 %
07.12.2020 20:48 2,9 C 2,2 C 2,8 C 98 % 1001,8 hPa 0,0 l/m 0 min 0 min 0 W/m 3,2 km/h (1 Bft) 97,87 %
07.12.2020 20:50 2,9 C 2,2 C 2,8 C 98 % 1001,8 hPa 0,0 l/m 0 min 0 min 0 W/m 3,2 km/h (1 Bft) 97,87 %
07.12.2020 20:52 2,9 C 2,2 C 2,8 C 98 % 1001,8 hPa 0,0 l/m 0 min 0 min 0 W/m 3,2 km/h (1 Bft) 95,65 %
07.12.2020 20:54 2,9 C 2,2 C 2,8 C 98 % 1001,9 hPa 0,0 l/m 0 min 0 min 0 W/m 3,2 km/h (1 Bft) 97,87 %
07.12.2020 20:56 2,9 C 2,2 C 2,8 C 98 % 1001,8 hPa 0,0 l/m 0 min 0 min 0 W/m 0,0 km/h (0 Bft) 97,87 %
07.12.2020 20:58 2,9 C 2,2 C 2,3 C 98 % 1001,9 hPa 0,0 l/m 0 min 0 min 0 W/m 0,0 km/h (0 Bft) 95,74 %
07.12.2020 21:00 2,9 C 2,2 C 2,3 C 98 % 1001,9 hPa 0,0 l/m 0 min 0 min 0 W/m 0,0 km/h (0 Bft) 97,87 %
07.12.2020 21:02 2,9 C 2,2 C 2,3 C 98 % 1001,9 hPa 0,0 l/m 0 min 0 min 0 W/m 0,0 km/h (0 Bft) 97,87 %
07.12.2020 21:04 2,9 C 2,2 C 2,3 C 98 % 1001,9 hPa 0,0 l/m 0 min 0 min 0 W/m 0,0 km/h (0 Bft) 100,00 %
07.12.2020 21:06 2,9 C 2,2 C 2,3 C 98 % 1001,9 hPa 0,0 l/m 0 min 0 min 0 W/m 3,2 km/h (1 Bft) 100,00 %
07.12.2020 21:08 2,9 C 2,2 C 2,3 C 98 % 1001,9 hPa 0,0 l/m 0 min 0 min 0 W/m 3,2 km/h (1 Bft) 97,87 %
07.12.2020 21:10 2,9 C 2,2 C 2,3 C 98 % 1001,9 hPa 0,0 l/m 0 min 0 min 0 W/m 0,0 km/h (0 Bft) 97,87 %
07.12.2020 21:12 2,8 C 1,7 C 2,3 C 98 % 1001,9 hPa 0,0 l/m 0 min 0 min 0 W/m 0,0 km/h (0 Bft) 100,00 %
07.12.2020 21:14 2,8 C 1,7 C 2,3 C 98 % 1001,9 hPa 0,0 l/m 0 min 0 min 0 W/m 0,0 km/h (0 Bft) 100,00 %
07.12.2020 21:16 2,8 C 1,7 C 2,3 C 98 % 1001,9 hPa 0,0 l/m 0 min 0 min 0 W/m 0,0 km/h (0 Bft) 100,00 %
07.12.2020 21:18 2,8 C 1,7 C 2,3 C 98 % 1002,0 hPa 0,0 l/m 0 min 0 min 0 W/m 0,0 km/h (0 Bft) 100,00 %
07.12.2020 21:20 2,8 C 1,7 C 2,3 C 98 % 1002,0 hPa 0,0 l/m 0 min 0 min 0 W/m 0,0 km/h (0 Bft) 100,00 %
07.12.2020 21:22 2,7 C 1,7 C 2,3 C 97 % 1002,0 hPa 0,0 l/m 0 min 0 min 0 W/m 0,0 km/h (0 Bft) 97,87 %
07.12.2020 21:24 2,7 C 1,7 C 2,3 C 97 % 1002,0 hPa 0,0 l/m 0 min 0 min 0 W/m 0,0 km/h (0 Bft) 97,87 %
07.12.2020 21:26 2,7 C 1,7 C 2,3 C 97 % 1002,0 hPa 0,0 l/m 0 min 0 min 0 W/m 0,0 km/h (0 Bft) 97,83 %
07.12.2020 21:28 2,6 C 1,7 C 2,3 C 97 % 1002,1 hPa 0,0 l/m 0 min 0 min 0 W/m 0,0 km/h (0 Bft) 97,87 %
07.12.2020 21:30 2,6 C 1,7 C 2,3 C 97 % 1002,0 hPa 0,0 l/m 0 min 0 min 0 W/m 3,2 km/h (1 Bft) 97,87 %
07.12.2020 21:32 2,6 C 1,7 C 2,3 C 97 % 1002,0 hPa 0,0 l/m 0 min 0 min 0 W/m 0,0 km/h (0 Bft) 97,87 %
07.12.2020 21:34 2,6 C 1,7 C 2,3 C 97 % 1002,0 hPa 0,0 l/m 0 min 0 min 0 W/m 0,0 km/h (0 Bft) 97,87 %
07.12.2020 21:36 2,6 C 1,7 C 2,3 C 97 % 1002,0 hPa 0,0 l/m 0 min 0 min 0 W/m 0,0 km/h (0 Bft) 93,62 %
07.12.2020 21:38 2,5 C 1,7 C 2,3 C 97 % 1002,0 hPa 0,0 l/m 0 min 0 min 0 W/m 0,0 km/h (0 Bft) 97,83 %
07.12.2020 21:40 2,5 C 1,7 C 2,3 C 97 % 1002,0 hPa 0,0 l/m 0 min 0 min 0 W/m 0,0 km/h (0 Bft) 97,87 %
07.12.2020 21:42 2,5 C 1,7 C 2,3 C 97 % 1002,0 hPa 0,0 l/m 0 min 0 min 0 W/m 0,0 km/h (0 Bft) 97,87 %
07.12.2020 21:44 2,5 C 1,7 C 2,3 C 97 % 1002,0 hPa 0,0 l/m 0 min 0 min 0 W/m 0,0 km/h (0 Bft) 97,87 %
07.12.2020 21:46 2,5 C 1,7 C 2,3 C 97 % 1002,1 hPa 0,0 l/m 0 min 0 min 0 W/m 0,0 km/h (0 Bft) 97,87 %
07.12.2020 21:48 2,5 C 1,7 C 2,3 C 97 % 1002,1 hPa 0,0 l/m 0 min 0 min 0 W/m 0,0 km/h (0 Bft) 95,74 %
07.12.2020 21:50 2,5 C 1,7 C 2,3 C 97 % 1002,1 hPa 0,0 l/m 0 min 0 min 0 W/m 6,4 km/h (2 Bft) 93,48 %
07.12.2020 21:52 2,5 C 2,2 C 2,3 C 98 % 1002,1 hPa 0,0 l/m 0 min 0 min 0 W/m 6,4 km/h (2 Bft) 95,74 %
07.12.2020 21:54 2,5 C 1,7 C 2,3 C 98 % 1002,0 hPa 0,0 l/m 0 min 0 min 0 W/m 3,2 km/h (1 Bft) 97,87 %
07.12.2020 21:56 2,5 C 1,7 C 2,3 C 98 % 1002,0 hPa 0,0 l/m 0 min 0 min 0 W/m 0,0 km/h (0 Bft) 95,74 %
07.12.2020 21:58 2,5 C 2,2 C 2,3 C 98 % 1002,0 hPa 0,0 l/m 0 min 0 min 0 W/m 12,9 km/h (3 Bft) 97,87 %
07.12.2020 22:00 2,5 C 2,2 C 2,3 C 98 % 1002,0 hPa 0,0 l/m 0 min 0 min 0 W/m 6,4 km/h (2 Bft) 97,83 %
07.12.2020 22:02 2,5 C 2,2 C 2,3 C 98 % 1001,9 hPa 0,0 l/m 0 min 0 min 0 W/m 12,9 km/h (3 Bft) 97,87 %
07.12.2020 22:04 2,5 C 2,2 C 2,3 C 98 % 1001,9 hPa 0,0 l/m 0 min 0 min 0 W/m 12,9 km/h (3 Bft) 95,74 %
07.12.2020 22:06 2,5 C 2,2 C 2,3 C 98 % 1001,9 hPa 0,0 l/m 0 min 0 min 0 W/m 3,2 km/h (1 Bft) 97,87 %
07.12.2020 22:08 2,5 C 2,2 C 2,3 C 98 % 1002,0 hPa 0,0 l/m 0 min 0 min 0 W/m 6,4 km/h (2 Bft) 97,87 %
07.12.2020 22:10 2,5 C 2,2 C 2,3 C 98 % 1001,9 hPa 0,0 l/m 0 min 0 min 0 W/m 6,4 km/h (2 Bft) 97,87 %
07.12.2020 22:12 2,5 C 1,7 C 2,3 C 98 % 1001,9 hPa 0,0 l/m 0 min 0 min 0 W/m 3,2 km/h (1 Bft) 100,00 %
07.12.2020 22:14 2,5 C 2,2 C 2,3 C 98 % 1001,9 hPa 0,0 l/m 0 min 0 min 0 W/m 12,9 km/h (3 Bft) 97,87 %
07.12.2020 22:16 2,5 C 1,7 C 2,3 C 98 % 1001,9 hPa 0,0 l/m 0 min 0 min 0 W/m 6,4 km/h (2 Bft) 100,00 %
07.12.2020 22:18 2,5 C 1,7 C 2,3 C 98 % 1001,9 hPa 0,0 l/m 0 min 0 min 0 W/m 3,2 km/h (1 Bft) 100,00 %
07.12.2020 22:20 2,5 C 1,7 C 2,3 C 98 % 1001,9 hPa 0,0 l/m 0 min 0 min 0 W/m 3,2 km/h (1 Bft) 100,00 %
07.12.2020 22:22 2,5 C 1,7 C 2,3 C 98 % 1002,0 hPa 0,0 l/m 0 min 0 min 0 W/m 0,0 km/h (0 Bft) 100,00 %
07.12.2020 22:24 2,5 C 1,7 C 2,3 C 98 % 1002,0 hPa 0,0 l/m 0 min 0 min 0 W/m 0,0 km/h (0 Bft) 100,00 %
07.12.2020 22:26 2,5 C 1,7 C 2,3 C 97 % 1002,0 hPa 0,0 l/m 0 min 0 min 0 W/m 0,0 km/h (0 Bft) 100,00 %
07.12.2020 22:28 2,5 C 1,7 C 2,3 C 97 % 1002,0 hPa 0,0 l/m 0 min 0 min 0 W/m 0,0 km/h (0 Bft) 100,00 %
07.12.2020 22:30 2,5 C 1,7 C 2,3 C 97 % 1002,0 hPa 0,0 l/m 0 min 0 min 0 W/m 0,0 km/h (0 Bft) 100,00 %
07.12.2020 22:32 2,5 C 1,7 C 2,3 C 97 % 1002,0 hPa 0,0 l/m 0 min 0 min 0 W/m 0,0 km/h (0 Bft) 100,00 %
07.12.2020 22:34 2,5 C 1,7 C 1,7 C 97 % 1002,0 hPa 0,0 l/m 0 min 0 min 0 W/m 0,0 km/h (0 Bft) 100,00 %
07.12.2020 22:36 2,5 C 1,7 C 1,7 C 97 % 1002,0 hPa 0,0 l/m 0 min 0 min 0 W/m 0,0 km/h (0 Bft) 95,65 %
07.12.2020 22:38 2,5 C 1,7 C 1,7 C 97 % 1002,0 hPa 0,0 l/m 0 min 0 min 0 W/m 3,2 km/h (1 Bft) 97,87 %
07.12.2020 22:40 2,4 C 1,7 C 2,3 C 97 % 1001,9 hPa 0,0 l/m 0 min 0 min 0 W/m 3,2 km/h (1 Bft) 100,00 %
07.12.2020 22:42 2,4 C 1,7 C 1,7 C 97 % 1001,9 hPa 0,0 l/m 0 min 0 min 0 W/m 3,2 km/h (1 Bft) 97,87 %
07.12.2020 22:44 2,4 C 1,7 C 1,7 C 97 % 1001,9 hPa 0,0 l/m 0 min 0 min 0 W/m 0,0 km/h (0 Bft) 100,00 %
07.12.2020 22:46 2,4 C 1,7 C 1,7 C 97 % 1002,0 hPa 0,0 l/m 0 min 0 min 0 W/m 0,0 km/h (0 Bft) 95,74 %
07.12.2020 22:48 2,4 C 1,1 C 1,7 C 97 % 1001,9 hPa 0,0 l/m 0 min 0 min 0 W/m 0,0 km/h (0 Bft) 97,83 %
07.12.2020 22:50 2,4 C 1,1 C 1,7 C 97 % 1001,9 hPa 0,0 l/m 0 min 0 min 0 W/m 3,2 km/h (1 Bft) 97,87 %
07.12.2020 22:52 2,4 C 1,1 C 1,7 C 97 % 1001,9 hPa 0,0 l/m 0 min 0 min 0 W/m 3,2 km/h (1 Bft) 95,74 %
07.12.2020 22:54 2,3 C 1,1 C 1,7 C 97 % 1001,9 hPa 0,0 l/m 0 min 0 min 0 W/m 0,0 km/h (0 Bft) 97,87 %
07.12.2020 22:56 2,3 C 1,1 C 1,7 C 97 % 1001,9 hPa 0,0 l/m 0 min 0 min 0 W/m 0,0 km/h (0 Bft) 95,74 %
07.12.2020 22:58 2,3 C 1,1 C 1,7 C 97 % 1001,9 hPa 0,0 l/m 0 min 0 min 0 W/m 0,0 km/h (0 Bft) 97,83 %
07.12.2020 23:00 2,3 C 1,1 C 1,7 C 97 % 1002,0 hPa 0,0 l/m 0 min 0 min 0 W/m 0,0 km/h (0 Bft) 97,87 %
07.12.2020 23:02 2,3 C 1,1 C 1,7 C 97 % 1002,0 hPa 0,0 l/m 0 min 0 min 0 W/m 0,0 km/h (0 Bft) 97,87 %
07.12.2020 23:04 2,2 C 1,1 C 1,7 C 97 % 1002,0 hPa 0,0 l/m 0 min 0 min 0 W/m 0,0 km/h (0 Bft) 97,87 %
07.12.2020 23:06 2,2 C 1,1 C 1,7 C 97 % 1001,9 hPa 0,0 l/m 0 min 0 min 0 W/m 0,0 km/h (0 Bft) 97,87 %
07.12.2020 23:08 2,2 C 1,1 C 1,7 C 97 % 1002,0 hPa 0,0 l/m 0 min 0 min 0 W/m 0,0 km/h (0 Bft) 95,74 %
07.12.2020 23:10 2,1 C 1,1 C 1,1 C 97 % 1002,0 hPa 0,0 l/m 0 min 0 min 0 W/m 0,0 km/h (0 Bft) 97,83 %
07.12.2020 23:12 2,1 C 0,6 C 1,1 C 97 % 1002,0 hPa 0,0 l/m 0 min 0 min 0 W/m 0,0 km/h (0 Bft) 97,87 %
07.12.2020 23:14 2,1 C 0,6 C 1,1 C 97 % 1002,0 hPa 0,0 l/m 0 min 0 min 0 W/m 0,0 km/h (0 Bft) 97,87 %
07.12.2020 23:16 2,1 C 0,6 C 1,1 C 97 % 1001,9 hPa 0,0 l/m 0 min 0 min 0 W/m 0,0 km/h (0 Bft) 97,87 %
07.12.2020 23:18 2,0 C 0,6 C 1,1 C 97 % 1001,9 hPa 0,0 l/m 0 min 0 min 0 W/m 0,0 km/h (0 Bft) 97,87 %
07.12.2020 23:20 2,0 C 0,6 C 1,1 C 97 % 1001,9 hPa 0,0 l/m 0 min 0 min 0 W/m 0,0 km/h (0 Bft) 97,87 %
07.12.2020 23:22 2,0 C 0,6 C 1,1 C 97 % 1001,9 hPa 0,0 l/m 0 min 0 min 0 W/m 0,0 km/h (0 Bft) 97,83 %
07.12.2020 23:24 2,0 C 0,6 C 1,1 C 97 % 1002,0 hPa 0,0 l/m 0 min 0 min 0 W/m 0,0 km/h (0 Bft) 97,87 %
07.12.2020 23:26 1,9 C 0,6 C 1,1 C 97 % 1001,9 hPa 0,0 l/m 0 min 0 min 0 W/m 0,0 km/h (0 Bft) 97,87 %
07.12.2020 23:28 1,9 C 0,6 C 1,1 C 97 % 1001,9 hPa 0,0 l/m 0 min 0 min 0 W/m 0,0 km/h (0 Bft) 100,00 %
07.12.2020 23:30 1,9 C 0,6 C 1,1 C 97 % 1001,9 hPa 0,0 l/m 0 min 0 min 0 W/m 0,0 km/h (0 Bft) 100,00 %
07.12.2020 23:32 1,9 C 0,6 C 1,1 C 97 % 1001,9 hPa 0,0 l/m 0 min 0 min 0 W/m 0,0 km/h (0 Bft) 100,00 %
07.12.2020 23:34 1,8 C 0,0 C 1,1 C 97 % 1001,9 hPa 0,0 l/m 0 min 0 min 0 W/m 0,0 km/h (0 Bft) 100,00 %
07.12.2020 23:36 1,8 C 0,0 C 1,1 C 97 % 1001,9 hPa 0,0 l/m 0 min 0 min 0 W/m 0,0 km/h (0 Bft) 100,00 %
07.12.2020 23:38 1,8 C 0,0 C 0,6 C 97 % 1001,9 hPa 0,0 l/m 0 min 0 min 0 W/m 0,0 km/h (0 Bft) 97,87 %
07.12.2020 23:40 1,7 C 0,0 C 0,6 C 97 % 1001,9 hPa 0,0 l/m 0 min 0 min 0 W/m 0,0 km/h (0 Bft) 100,00 %
07.12.2020 23:42 1,7 C 0,0 C 0,6 C 97 % 1001,9 hPa 0,0 l/m 0 min 0 min 0 W/m 0,0 km/h (0 Bft) 97,87 %
07.12.2020 23:44 1,6 C 0,0 C 0,6 C 97 % 1001,9 hPa 0,0 l/m 0 min 0 min 0 W/m 0,0 km/h (0 Bft) 100,00 %
07.12.2020 23:46 1,6 C 0,0 C 0,6 C 97 % 1002,0 hPa 0,0 l/m 0 min 0 min 0 W/m 0,0 km/h (0 Bft) 100,00 %
07.12.2020 23:48 1,6 C 0,0 C 0,6 C 97 % 1002,0 hPa 0,0 l/m 0 min 0 min 0 W/m 0,0 km/h (0 Bft) 100,00 %
07.12.2020 23:50 1,5 C 0,0 C 0,6 C 97 % 1002,0 hPa 0,0 l/m 0 min 0 min 0 W/m 0,0 km/h (0 Bft) 100,00 %
07.12.2020 23:52 1,5 C 0,0 C 0,6 C 97 % 1002,0 hPa 0,0 l/m 0 min 0 min 0 W/m 0,0 km/h (0 Bft) 100,00 %
07.12.2020 23:54 1,5 C 0,0 C 0,6 C 97 % 1001,9 hPa 0,0 l/m 0 min 0 min 0 W/m 0,0 km/h (0 Bft) 100,00 %
07.12.2020 23:56 1,4 C 0,0 C 0,6 C 97 % 1002,0 hPa 0,0 l/m 0 min 0 min 0 W/m 0,0 km/h (0 Bft) 100,00 %
07.12.2020 23:58 1,4 C 0,0 C 0,6 C 97 % 1002,0 hPa 0,0 l/m 0 min 0 min 0 W/m 0,0 km/h (0 Bft) 100,00 %
_ Min-Zeit 23:56 23:34 23:38 21:22 05:54 - - - - 00:00 02:32
Minimum _ 1,4 C 0,0 C 0,6 C 97 % 996,4 hPa - - - - 0,0 km/h (0 Bft) 47,50 %
_ Max-Zeit 15:14 15:04 14:12 00:00 21:28 00:36 00:00 07:56 14:16 06:32 03:10
Maximum _ 4,3 C 3,9 C 3,9 C 99 % 1002,1 hPa 0,2 l/m 0 min 4 min 54 W/m 35,4 km/h
S-SO (5 Bft)
100,00 %
Durchschnitt _ 3,2 C 2,5 C 2,9 C 99 % 999,1 hPa #9,0 l/m #0 min. #13:54 h 28 W/m 9,6 km/h (2 Bft) 97,10 %
© 2020 W. Hausmann